CSN307 ZGGG-EHAM

Flight info

Callsign CSN307
Flight time 11h 55m
Altitude 34100
Route MIKIP9 MIKIP A461 BUBDA W56 REBIS/K0922S1070 W56 OBMEP/K0919S1100 B208 NIXAL Y746 DARNO/K0906F380 P982 TR A308 ABK R104 BA R229 XV B228 LITUN N869 UNISO L870 TUNAL/K0902F400 L870 RANVA/N0486F400 L870 RESMO DCT PIMEX DCT RASEL DCT ALASA DCT WANZA N872 KUBAT T200 BLUFA
Aircraft A359/H-SDE2E3GHIJ1J3J4J5LM1ORWXY/LB1D1

Departure

Time 2026-05-05 16:27
Airport Guangzhou Baiyun International Airport (ZGGG)

Arrival

Time 2026-05-06 04:22
Airport Amsterdam Airport Schiphol (EHAM)
Time Latitude Longitude Altitude Speed Heading
2026-05-05 16:03 23.40224 113.29930 65 ft 0 kts 194°
2026-05-05 16:11 23.40225 113.29930 65 ft 2 kts 194°
2026-05-05 16:11 23.40273 113.29943 59 ft 2 kts 195°
2026-05-05 16:12 23.40287 113.29952 55 ft 2 kts 227°
2026-05-05 16:12 23.40301 113.29984 55 ft 2 kts 275°
2026-05-05 16:13 23.40294 113.30019 55 ft 0 kts 284°
2026-05-05 16:16 23.40295 113.30015 55 ft 1 kts 284°
2026-05-05 16:17 23.40341 113.29931 57 ft 10 kts 332°
2026-05-05 16:17 23.40419 113.29901 59 ft 13 kts 342°
2026-05-05 16:18 23.40526 113.29786 65 ft 12 kts 283°
2026-05-05 16:18 23.40546 113.29694 58 ft 14 kts 283°
2026-05-05 16:18 23.40573 113.29476 59 ft 13 kts 271°
2026-05-05 16:19 23.40590 113.29386 61 ft 11 kts 283°
2026-05-05 16:19 23.40571 113.29325 58 ft 8 kts 213°
2026-05-05 16:19 23.40437 113.29286 60 ft 13 kts 193°
2026-05-05 16:20 23.40230 113.29231 56 ft 17 kts 194°
2026-05-05 16:20 23.39969 113.29160 62 ft 21 kts 194°
2026-05-05 16:21 23.39660 113.29077 58 ft 24 kts 194°
2026-05-05 16:22 23.39178 113.28946 57 ft 25 kts 194°
2026-05-05 16:22 23.38815 113.28848 61 ft 29 kts 194°
2026-05-05 16:23 23.38433 113.28745 58 ft 28 kts 194°
2026-05-05 16:23 23.38246 113.28695 59 ft 27 kts 194°
2026-05-05 16:23 23.37892 113.28599 57 ft 23 kts 194°
2026-05-05 16:24 23.37765 113.28564 56 ft 17 kts 194°
2026-05-05 16:24 23.37694 113.28541 60 ft 6 kts 211°
2026-05-05 16:24 23.37683 113.28461 55 ft 6 kts 283°
2026-05-05 16:25 23.37693 113.28415 62 ft 7 kts 284°
2026-05-05 16:25 23.37740 113.28367 55 ft 4 kts
2026-05-05 16:25 23.37773 113.28374 57 ft 8 kts 12°
2026-05-05 16:26 23.38571 113.28589 61 ft 121 kts 14°
2026-05-05 16:26 23.40777 113.29190 604 ft 181 kts 14°
2026-05-05 16:27 23.42053 113.29453 1226 ft 188 kts
2026-05-05 16:27 23.43354 113.29283 1671 ft 196 kts 343°
2026-05-05 16:27 23.44713 113.28791 1874 ft 214 kts 341°
2026-05-05 16:27 23.46170 113.28204 2035 ft 235 kts 339°
2026-05-05 16:28 23.47757 113.27505 2201 ft 257 kts 337°
2026-05-05 16:28 23.49462 113.26700 2474 ft 274 kts 335°
2026-05-05 16:28 23.51261 113.25943 3050 ft 276 kts 343°
2026-05-05 16:28 23.53133 113.25541 3763 ft 274 kts 355°
2026-05-05 16:29 23.55043 113.25558 4386 ft 275 kts
2026-05-05 16:29 23.56949 113.25772 4929 ft 276 kts
2026-05-05 16:29 23.58835 113.26103 5414 ft 278 kts
2026-05-05 16:29 23.60748 113.26504 5908 ft 282 kts 10°
2026-05-05 16:30 23.62680 113.26934 6419 ft 285 kts 10°
2026-05-05 16:30 23.64631 113.27369 6935 ft 287 kts
2026-05-05 16:30 23.66512 113.27779 7461 ft 288 kts
2026-05-05 16:30 23.68490 113.28202 8065 ft 291 kts
2026-05-05 16:31 23.70486 113.28621 8712 ft 292 kts
2026-05-05 16:31 23.72492 113.29038 9335 ft 295 kts
2026-05-05 16:31 23.74521 113.29457 9929 ft 298 kts
2026-05-05 16:31 23.76585 113.29881 10314 ft 308 kts
2026-05-05 16:32 23.78742 113.30321 10588 ft 322 kts
2026-05-05 16:32 23.80998 113.30782 10852 ft 336 kts
2026-05-05 16:32 23.82533 113.31098 11021 ft 345 kts
2026-05-05 16:32 23.85441 113.31698 11353 ft 360 kts
2026-05-05 16:33 23.87955 113.32219 11612 ft 372 kts
2026-05-05 16:33 23.90524 113.32753 11962 ft 380 kts
2026-05-05 16:33 23.93140 113.33299 12407 ft 384 kts
2026-05-05 16:33 23.95772 113.33851 12881 ft 388 kts
2026-05-05 16:34 23.98436 113.34410 13322 ft 391 kts
2026-05-05 16:34 24.01118 113.34970 13787 ft 394 kts
2026-05-05 16:34 24.03818 113.35533 14205 ft 396 kts
2026-05-05 16:34 24.06536 113.36100 14630 ft 398 kts
2026-05-05 16:35 24.09270 113.36669 15031 ft 401 kts
2026-05-05 16:35 24.12014 113.37242 15428 ft 403 kts
2026-05-05 16:35 24.14786 113.37823 15791 ft 406 kts
2026-05-05 16:35 24.17566 113.38406 16205 ft 407 kts
2026-05-05 16:36 24.20345 113.38985 16591 ft 409 kts
2026-05-05 16:36 24.23153 113.39570 16966 ft 411 kts
2026-05-05 16:36 24.25931 113.40150 17306 ft 414 kts
2026-05-05 16:36 24.28769 113.40743 17658 ft 416 kts
2026-05-05 16:37 24.31621 113.41339 18036 ft 417 kts
2026-05-05 16:37 24.34488 113.41841 18367 ft 417 kts
2026-05-05 16:37 24.37382 113.42077 18660 ft 417 kts 358°
2026-05-05 16:37 24.40292 113.42220 18978 ft 419 kts 357°
2026-05-05 16:38 24.43206 113.42310 19274 ft 420 kts 356°
2026-05-05 16:38 24.46144 113.42383 19592 ft 422 kts 356°
2026-05-05 16:38 24.49085 113.42449 19895 ft 424 kts 356°
2026-05-05 16:38 24.52045 113.42515 20225 ft 427 kts 356°
2026-05-05 16:39 24.55014 113.42588 20554 ft 429 kts 356°
2026-05-05 16:39 24.58017 113.42668 20870 ft 431 kts 356°
2026-05-05 16:39 24.61026 113.42751 21182 ft 434 kts 356°
2026-05-05 16:39 24.64049 113.42837 21500 ft 436 kts 356°
2026-05-05 16:40 24.66058 113.42895 21729 ft 437 kts 356°
2026-05-05 16:40 24.70101 113.43011 22166 ft 440 kts 356°
2026-05-05 16:40 24.72172 113.43070 22377 ft 442 kts 356°
2026-05-05 16:40 24.76257 113.43186 22794 ft 445 kts 356°
2026-05-05 16:41 24.79362 113.43274 23066 ft 448 kts 356°
2026-05-05 16:41 24.82483 113.43362 23432 ft 449 kts 356°
2026-05-05 16:41 24.85620 113.43451 23736 ft 451 kts 356°
2026-05-05 16:41 24.87735 113.43512 23929 ft 452 kts 355°
2026-05-05 16:42 24.90848 113.43601 24231 ft 453 kts 355°
2026-05-05 16:42 24.94006 113.43692 24552 ft 454 kts 355°
2026-05-05 16:42 24.97181 113.43782 24858 ft 456 kts 355°
2026-05-05 16:42 25.00361 113.43872 25189 ft 458 kts 355°
2026-05-05 16:43 25.03561 113.43963 25531 ft 460 kts 355°
2026-05-05 16:43 25.06753 113.44053 25862 ft 461 kts 355°
2026-05-05 16:43 25.09982 113.44145 26190 ft 464 kts 355°
2026-05-05 16:43 25.13214 113.44238 26525 ft 466 kts 355°
2026-05-05 16:44 25.16457 113.44331 26849 ft 468 kts 355°
2026-05-05 16:44 25.19718 113.44424 27174 ft 470 kts 355°
2026-05-05 16:44 25.22992 113.44519 27440 ft 471 kts 355°
2026-05-05 16:44 25.26279 113.44614 27717 ft 473 kts 355°
2026-05-05 16:45 25.29574 113.44708 28016 ft 475 kts 355°
2026-05-05 16:45 25.32898 113.44802 28320 ft 478 kts 355°
2026-05-05 16:45 25.36234 113.44895 28610 ft 481 kts 355°
2026-05-05 16:45 25.39545 113.44987 28940 ft 483 kts 355°
2026-05-05 16:46 25.42920 113.45082 29269 ft 486 kts 355°
2026-05-05 16:46 25.46311 113.45179 29566 ft 488 kts 355°
2026-05-05 16:46 25.49710 113.45277 29812 ft 490 kts 355°
2026-05-05 16:46 25.53127 113.45378 30104 ft 492 kts 355°
2026-05-05 16:47 25.56559 113.45479 30356 ft 493 kts 355°
2026-05-05 16:47 25.59993 113.45578 30610 ft 494 kts 354°
2026-05-05 16:47 25.63435 113.45679 30802 ft 495 kts 354°
2026-05-05 16:47 25.66885 113.45780 31038 ft 496 kts 354°
2026-05-05 16:48 25.70341 113.45880 31263 ft 497 kts 354°
2026-05-05 16:48 25.73808 113.45982 31496 ft 498 kts 354°
2026-05-05 16:48 25.77272 113.46083 31725 ft 498 kts 354°
2026-05-05 16:48 25.80738 113.46185 32058 ft 496 kts 354°
2026-05-05 16:49 25.84133 113.46286 32371 ft 495 kts 354°
2026-05-05 16:49 25.87618 113.46388 32667 ft 494 kts 354°
2026-05-05 16:49 25.91040 113.46397 32932 ft 490 kts 351°
2026-05-05 16:49 25.94396 113.46273 33221 ft 487 kts 349°
2026-05-05 16:50 25.97789 113.46092 33506 ft 486 kts 349°
2026-05-05 16:50 26.01160 113.45904 33776 ft 485 kts 349°
2026-05-05 16:50 26.04415 113.45733 33954 ft 486 kts 349°
2026-05-05 16:50 26.07911 113.45562 33971 ft 486 kts 354°
2026-05-05 16:51 26.11251 113.45409 34053 ft 475 kts 354°
2026-05-05 16:51 26.14522 113.45284 34059 ft 466 kts 354°
2026-05-05 16:51 26.20953 113.45051 34061 ft 461 kts 354°
2026-05-05 16:52 26.27362 113.44810 34058 ft 461 kts 354°
2026-05-05 16:52 26.33763 113.44566 34050 ft 460 kts 354°
2026-05-05 16:53 26.40161 113.44320 34045 ft 460 kts 354°
2026-05-05 16:53 26.46562 113.44074 34040 ft 459 kts 354°
2026-05-05 16:54 26.52911 113.43831 34037 ft 459 kts 354°
2026-05-05 16:54 26.59288 113.43587 34035 ft 458 kts 354°
2026-05-05 16:55 26.65661 113.43340 34030 ft 458 kts 354°
2026-05-05 16:55 26.72024 113.43095 34029 ft 457 kts 354°
2026-05-05 16:56 26.78381 113.42853 34025 ft 457 kts 354°
2026-05-05 16:56 26.84735 113.42610 34024 ft 456 kts 354°
2026-05-05 16:57 26.91085 113.42363 34024 ft 456 kts 354°
2026-05-05 16:57 26.97436 113.42117 34021 ft 456 kts 354°
2026-05-05 16:58 27.03768 113.41872 34026 ft 455 kts 354°
2026-05-05 16:58 27.10105 113.41627 34014 ft 455 kts 354°
2026-05-05 16:59 27.16422 113.41383 34015 ft 455 kts 354°
2026-05-05 16:59 27.22747 113.41138 34013 ft 455 kts 354°
2026-05-05 17:00 27.29076 113.40893 34012 ft 455 kts 354°
2026-05-05 17:00 27.35398 113.40681 34007 ft 455 kts 356°
2026-05-05 17:01 27.41703 113.40800 34130 ft 456 kts 358°
2026-05-05 17:01 27.44866 113.40909 34391 ft 454 kts 358°
2026-05-05 17:01 27.48014 113.41010 34637 ft 452 kts 357°
2026-05-05 17:02 27.51157 113.41098 34832 ft 451 kts 357°
2026-05-05 17:02 27.54299 113.41173 34979 ft 452 kts 357°
2026-05-05 17:02 27.60628 113.41298 35012 ft 457 kts 356°
2026-05-05 17:03 27.66976 113.41430 35000 ft 457 kts 358°
2026-05-05 17:03 27.73335 113.41927 35007 ft 458 kts
2026-05-05 17:04 27.79683 113.42593 35006 ft 458 kts
2026-05-05 17:04 27.86027 113.43221 35004 ft 457 kts
2026-05-05 17:05 27.92352 113.43793 35006 ft 457 kts
2026-05-05 17:05 27.98705 113.44353 35007 ft 456 kts
2026-05-05 17:06 28.05036 113.44896 35007 ft 456 kts
2026-05-05 17:06 28.11376 113.45441 35010 ft 456 kts 360°
2026-05-05 17:07 28.17697 113.45897 35012 ft 455 kts 359°
2026-05-05 17:07 28.24025 113.46324 35009 ft 455 kts 359°
2026-05-05 17:08 28.30353 113.46763 35006 ft 455 kts 359°
2026-05-05 17:08 28.36641 113.47211 35010 ft 455 kts 359°
2026-05-05 17:09 28.42957 113.47668 35007 ft 455 kts 359°
2026-05-05 17:09 28.49278 113.48120 35007 ft 455 kts 359°
2026-05-05 17:10 28.55605 113.48569 35003 ft 455 kts 359°
2026-05-05 17:10 28.61925 113.49020 35002 ft 455 kts 360°
2026-05-05 17:11 28.68238 113.49472 35004 ft 454 kts 360°
2026-05-05 17:11 28.74555 113.49926 35003 ft 454 kts 360°
2026-05-05 17:12 28.80856 113.50382 35001 ft 454 kts 360°
2026-05-05 17:12 28.87170 113.50835 35001 ft 454 kts 360°
2026-05-05 17:13 28.93481 113.51286 34997 ft 454 kts 360°
2026-05-05 17:13 28.99774 113.51740 34996 ft 453 kts 360°
2026-05-05 17:14 29.06025 113.52190 34995 ft 453 kts 360°
2026-05-05 17:14 29.12363 113.52646 34991 ft 453 kts 360°
2026-05-05 17:15 29.18625 113.53099 34992 ft 453 kts 360°
2026-05-05 17:15 29.24919 113.53554 34991 ft 453 kts 360°
2026-05-05 17:16 29.31214 113.54024 34988 ft 453 kts
2026-05-05 17:16 29.37499 113.54568 34983 ft 453 kts
2026-05-05 17:17 29.43755 113.55127 34984 ft 453 kts
2026-05-05 17:17 29.50042 113.55680 34980 ft 453 kts
2026-05-05 17:18 29.56331 113.56226 34977 ft 453 kts
2026-05-05 17:18 29.62610 113.56771 34974 ft 453 kts
2026-05-05 17:19 29.68892 113.57318 34971 ft 453 kts
2026-05-05 17:19 29.75180 113.57866 34967 ft 453 kts
2026-05-05 17:20 29.81262 113.58397 34962 ft 453 kts
2026-05-05 17:20 29.87605 113.58951 34964 ft 453 kts
2026-05-05 17:21 29.93877 113.59800 34965 ft 458 kts
2026-05-05 17:22 30.02935 113.63671 34962 ft 465 kts 18°
2026-05-05 17:22 30.08875 113.66663 34961 ft 466 kts 18°
2026-05-05 17:23 30.14810 113.69663 34960 ft 465 kts 18°
2026-05-05 17:23 30.20746 113.72642 34959 ft 465 kts 18°
2026-05-05 17:24 30.26628 113.75586 34960 ft 464 kts 18°
2026-05-05 17:24 30.32570 113.78562 34962 ft 464 kts 18°
2026-05-05 17:25 30.38510 113.81542 34946 ft 464 kts 18°
2026-05-05 17:25 30.44442 113.84523 34954 ft 464 kts 18°
2026-05-05 17:26 30.49356 113.86996 34960 ft 464 kts 18°
2026-05-05 17:26 30.56257 113.90473 34960 ft 464 kts 18°
2026-05-05 17:27 30.62052 113.93397 34967 ft 464 kts 18°
2026-05-05 17:27 30.67955 113.96338 34952 ft 463 kts 17°
2026-05-05 17:28 30.72941 113.98777 34958 ft 464 kts 19°
2026-05-05 17:28 30.78750 114.02033 34954 ft 466 kts 20°
2026-05-05 17:29 30.84594 114.05318 34959 ft 465 kts 19°
2026-05-05 17:29 30.90445 114.08497 34957 ft 464 kts 19°
2026-05-05 17:30 30.96293 114.11656 34959 ft 464 kts 19°
2026-05-05 17:30 31.02152 114.14831 34959 ft 464 kts 19°
2026-05-05 17:31 31.07989 114.18011 34964 ft 464 kts 19°
2026-05-05 17:31 31.13836 114.21187 34965 ft 464 kts 19°
2026-05-05 17:32 31.19676 114.24363 34967 ft 464 kts 19°
2026-05-05 17:32 31.25512 114.27546 34965 ft 464 kts 19°
2026-05-05 17:33 31.31349 114.30730 34967 ft 463 kts 19°
2026-05-05 17:33 31.37382 114.32920 34965 ft 451 kts
2026-05-05 17:34 31.43630 114.33461 34968 ft 447 kts 358°
2026-05-05 17:34 31.49854 114.33642 34964 ft 447 kts 357°
2026-05-05 17:35 31.56037 114.33781 34965 ft 447 kts 357°
2026-05-05 17:35 31.62269 114.33945 34959 ft 447 kts 357°
2026-05-05 17:36 31.68471 114.34127 34956 ft 447 kts 357°
2026-05-05 17:36 31.74697 114.34315 34945 ft 447 kts 357°
2026-05-05 17:37 31.80907 114.34507 34948 ft 448 kts 357°
2026-05-05 17:37 31.87184 114.34708 34948 ft 448 kts 357°
2026-05-05 17:38 31.93408 114.34889 34942 ft 448 kts 357°
2026-05-05 17:38 31.99613 114.35070 34941 ft 448 kts 357°
2026-05-05 17:39 32.05877 114.35258 34937 ft 449 kts 357°
2026-05-05 17:39 32.12090 114.35446 34939 ft 449 kts 357°
2026-05-05 17:40 32.18331 114.35636 34933 ft 449 kts 357°
2026-05-05 17:40 32.24587 114.35826 34936 ft 449 kts 357°
2026-05-05 17:41 32.30852 114.36173 34936 ft 451 kts
2026-05-05 17:41 32.37111 114.36811 34935 ft 452 kts
2026-05-05 17:42 32.43371 114.37454 34931 ft 452 kts
2026-05-05 17:42 32.49669 114.38052 34932 ft 452 kts
2026-05-05 17:43 32.55918 114.38624 34932 ft 452 kts 360°
2026-05-05 17:43 32.62170 114.39194 34930 ft 452 kts 360°
2026-05-05 17:44 32.68457 114.39777 34929 ft 452 kts
2026-05-05 17:44 32.74702 114.40358 34926 ft 452 kts 360°
2026-05-05 17:45 32.81005 114.40942 34928 ft 452 kts 360°
2026-05-05 17:45 32.87257 114.41525 34927 ft 452 kts 360°
2026-05-05 17:46 32.93527 114.42110 34927 ft 453 kts 360°
2026-05-05 17:46 32.99817 114.42699 34926 ft 453 kts 360°
2026-05-05 17:47 33.06110 114.43288 34925 ft 453 kts 360°
2026-05-05 17:47 33.12395 114.43878 34928 ft 453 kts 360°
2026-05-05 17:48 33.18658 114.44467 34927 ft 453 kts 360°
2026-05-05 17:48 33.24932 114.45057 34925 ft 453 kts 360°
2026-05-05 17:49 33.31216 114.45656 34924 ft 453 kts 360°
2026-05-05 17:49 33.37516 114.46251 34925 ft 454 kts 359°
2026-05-05 17:50 33.43826 114.46838 34925 ft 454 kts 359°
2026-05-05 17:50 33.50099 114.47426 34923 ft 454 kts 359°
2026-05-05 17:51 33.56381 114.48018 34923 ft 454 kts 359°
2026-05-05 17:51 33.62705 114.48618 34924 ft 454 kts 359°
2026-05-05 17:52 33.68997 114.49210 34921 ft 454 kts 359°
2026-05-05 17:52 33.75290 114.49716 34923 ft 452 kts 355°
2026-05-05 17:53 33.81450 114.48787 34921 ft 442 kts 341°
2026-05-05 17:53 33.87018 114.45807 34921 ft 437 kts 325°
2026-05-05 17:54 33.91885 114.41490 34918 ft 436 kts 321°
2026-05-05 17:54 33.96654 114.36943 34911 ft 437 kts 320°
2026-05-05 17:55 34.01391 114.32410 34915 ft 437 kts 320°
2026-05-05 17:55 34.06197 114.27844 34910 ft 437 kts 320°
2026-05-05 17:56 34.10941 114.23350 34907 ft 437 kts 320°
2026-05-05 17:56 34.15708 114.18832 34902 ft 437 kts 320°
2026-05-05 17:57 34.20523 114.14259 34975 ft 437 kts 320°
2026-05-05 17:57 34.22896 114.12003 35297 ft 433 kts 320°
2026-05-05 17:57 34.25221 114.09792 35665 ft 428 kts 320°
2026-05-05 17:57 34.27557 114.07567 35871 ft 427 kts 320°
2026-05-05 17:58 34.29906 114.05328 35905 ft 431 kts 320°
2026-05-05 17:58 34.34626 114.00822 35905 ft 432 kts 320°
2026-05-05 17:59 34.39325 113.96332 35903 ft 431 kts 320°
2026-05-05 17:59 34.44052 113.91809 35903 ft 431 kts 320°
2026-05-05 18:00 34.48730 113.87355 35890 ft 433 kts 321°
2026-05-05 18:00 34.54003 113.83796 35903 ft 439 kts 335°
2026-05-05 18:01 34.59864 113.81621 35898 ft 443 kts 340°
2026-05-05 18:01 34.65815 113.79679 35899 ft 444 kts 340°
2026-05-05 18:02 34.71836 113.77726 35891 ft 444 kts 340°
2026-05-05 18:02 34.77795 113.75766 35891 ft 444 kts 340°
2026-05-05 18:03 34.83670 113.73818 35873 ft 444 kts 340°
2026-05-05 18:03 34.89415 113.71838 35873 ft 443 kts 337°
2026-05-05 18:04 34.95212 113.69248 35872 ft 441 kts 334°
2026-05-05 18:04 35.00936 113.66564 35870 ft 442 kts 335°
2026-05-05 18:05 35.06691 113.63956 35870 ft 443 kts 335°
2026-05-05 18:05 35.12479 113.61391 35876 ft 443 kts 335°
2026-05-05 18:06 35.18296 113.58823 35879 ft 443 kts 335°
2026-05-05 18:06 35.24101 113.56255 35880 ft 443 kts 335°
2026-05-05 18:07 35.29885 113.53688 35886 ft 444 kts 335°
2026-05-05 18:07 35.35670 113.51116 35889 ft 444 kts 335°
2026-05-05 18:08 35.41482 113.48528 35899 ft 444 kts 335°
2026-05-05 18:08 35.47319 113.45932 35911 ft 445 kts 335°
2026-05-05 18:09 35.53113 113.43365 35913 ft 444 kts 335°
2026-05-05 18:09 35.58934 113.40785 35920 ft 445 kts 335°
2026-05-05 18:10 35.64752 113.38212 35927 ft 444 kts 335°
2026-05-05 18:10 35.70561 113.35622 35932 ft 444 kts 335°
2026-05-05 18:11 35.76369 113.33019 35935 ft 445 kts 335°
2026-05-05 18:11 35.82187 113.30412 35941 ft 445 kts 334°
2026-05-05 18:12 35.88013 113.27813 35941 ft 445 kts 335°
2026-05-05 18:12 35.93836 113.25213 35941 ft 445 kts 334°
2026-05-05 18:13 35.99644 113.22614 35941 ft 445 kts 334°
2026-05-05 18:13 36.05466 113.20005 35937 ft 445 kts 334°
2026-05-05 18:14 36.11290 113.17392 35933 ft 445 kts 334°
2026-05-05 18:14 36.17114 113.14775 35933 ft 445 kts 334°
2026-05-05 18:15 36.21940 113.12603 35933 ft 445 kts 334°
2026-05-05 18:15 36.27923 113.10403 35933 ft 449 kts 339°
2026-05-05 18:16 36.33928 113.08431 35936 ft 449 kts 339°
2026-05-05 18:16 36.40006 113.06469 35932 ft 449 kts 339°
2026-05-05 18:17 36.46021 113.04522 35933 ft 449 kts 339°
2026-05-05 18:17 36.52070 113.02554 35933 ft 449 kts 339°
2026-05-05 18:18 36.58090 113.00589 35936 ft 449 kts 339°
2026-05-05 18:18 36.64144 112.98609 35940 ft 449 kts 339°
2026-05-05 18:19 36.70201 112.96626 35937 ft 449 kts 339°
2026-05-05 18:19 36.76199 112.94660 35945 ft 449 kts 339°
2026-05-05 18:20 36.82241 112.92676 35945 ft 448 kts 339°
2026-05-05 18:20 36.88263 112.90695 35936 ft 448 kts 339°
2026-05-05 18:21 36.94291 112.88708 35940 ft 448 kts 339°
2026-05-05 18:21 37.00315 112.86720 35940 ft 448 kts 339°
2026-05-05 18:22 37.06345 112.84727 35937 ft 448 kts 339°
2026-05-05 18:22 37.12381 112.82736 35938 ft 448 kts 339°
2026-05-05 18:23 37.18420 112.80738 35931 ft 448 kts 339°
2026-05-05 18:23 37.24415 112.78752 35921 ft 448 kts 339°
2026-05-05 18:24 37.30435 112.76754 35923 ft 448 kts 339°
2026-05-05 18:24 37.36488 112.74744 35916 ft 449 kts 339°
2026-05-05 18:25 37.42498 112.72746 35906 ft 448 kts 339°
2026-05-05 18:25 37.48523 112.70736 35888 ft 449 kts 339°
2026-05-05 18:26 37.54572 112.68714 35886 ft 449 kts 339°
2026-05-05 18:26 37.60603 112.66695 35878 ft 449 kts 338°
2026-05-05 18:27 37.66650 112.64690 35874 ft 450 kts 339°
2026-05-05 18:27 37.72694 112.62706 35875 ft 450 kts 339°
2026-05-05 18:28 37.81909 112.60074 35875 ft 455 kts 342°
2026-05-05 18:28 37.88142 112.58673 35878 ft 455 kts 342°
2026-05-05 18:29 37.94377 112.57278 35880 ft 455 kts 342°
2026-05-05 18:29 38.00593 112.55839 35879 ft 455 kts 342°
2026-05-05 18:30 38.06836 112.54368 35879 ft 455 kts 342°
2026-05-05 18:30 38.13076 112.52891 35876 ft 455 kts 342°
2026-05-05 18:31 38.19266 112.51426 35872 ft 454 kts 342°
2026-05-05 18:31 38.25500 112.49947 35868 ft 455 kts 342°
2026-05-05 18:32 38.31699 112.48476 35866 ft 455 kts 342°
2026-05-05 18:32 38.37930 112.46994 35861 ft 455 kts 342°
2026-05-05 18:33 38.44140 112.45515 35861 ft 455 kts 342°
2026-05-05 18:33 38.50355 112.44033 35857 ft 455 kts 342°
2026-05-05 18:34 38.56578 112.42544 35852 ft 454 kts 342°
2026-05-05 18:34 38.62805 112.41049 35854 ft 455 kts 342°
2026-05-05 18:35 38.69013 112.39560 35851 ft 456 kts 342°
2026-05-05 18:35 38.75238 112.38067 35855 ft 456 kts 341°
2026-05-05 18:36 38.81491 112.36558 35849 ft 455 kts 341°
2026-05-05 18:36 38.87724 112.35055 35847 ft 456 kts 341°
2026-05-05 18:37 38.93940 112.33558 35848 ft 456 kts 341°
2026-05-05 18:37 39.00200 112.32042 35840 ft 457 kts 341°
2026-05-05 18:38 39.06418 112.30533 35836 ft 457 kts 341°
2026-05-05 18:38 39.12704 112.29007 35836 ft 457 kts 341°
2026-05-05 18:39 39.18930 112.27492 35831 ft 457 kts 341°
2026-05-05 18:39 39.25151 112.25978 35832 ft 457 kts 341°
2026-05-05 18:40 39.31416 112.24449 35839 ft 457 kts 341°
2026-05-05 18:40 39.37651 112.22918 35836 ft 457 kts 341°
2026-05-05 18:41 39.43928 112.21377 35839 ft 457 kts 341°
2026-05-05 18:41 39.50134 112.19857 35843 ft 457 kts 341°
2026-05-05 18:42 39.56397 112.18348 35847 ft 457 kts 341°
2026-05-05 18:42 39.62640 112.16843 35837 ft 457 kts 341°
2026-05-05 18:43 39.68893 112.15332 35838 ft 457 kts 341°
2026-05-05 18:43 39.75135 112.13818 35845 ft 457 kts 341°
2026-05-05 18:44 39.81383 112.12300 35846 ft 456 kts 341°
2026-05-05 18:44 39.87660 112.10773 35844 ft 456 kts 341°
2026-05-05 18:45 39.93873 112.09260 35846 ft 456 kts 341°
2026-05-05 18:45 40.00085 112.07745 35847 ft 456 kts 341°
2026-05-05 18:46 40.06340 112.06211 35848 ft 455 kts 340°
2026-05-05 18:46 40.12564 112.04675 35850 ft 455 kts 340°
2026-05-05 18:47 40.18771 112.03143 35851 ft 455 kts 340°
2026-05-05 18:47 40.25021 112.01605 35856 ft 456 kts 340°
2026-05-05 18:48 40.31253 112.00071 35855 ft 456 kts 340°
2026-05-05 18:48 40.37467 111.98539 35868 ft 456 kts 340°
2026-05-05 18:49 40.43719 111.97036 35857 ft 458 kts 341°
2026-05-05 18:49 40.49966 111.95668 35868 ft 458 kts 341°
2026-05-05 18:50 40.55185 111.94536 35872 ft 458 kts 341°
2026-05-05 18:50 40.62599 111.92899 35888 ft 458 kts 341°
2026-05-05 18:51 40.68818 111.91278 35896 ft 453 kts 338°
2026-05-05 18:51 40.74941 111.89347 35903 ft 450 kts 335°
2026-05-05 18:52 40.80898 111.86938 35904 ft 446 kts 333°
2026-05-05 18:52 40.86809 111.84426 35905 ft 446 kts 333°
2026-05-05 18:53 40.92719 111.82017 35898 ft 447 kts 334°
2026-05-05 18:53 40.98673 111.79652 35912 ft 446 kts 334°
2026-05-05 18:54 41.04614 111.77302 35914 ft 445 kts 334°
2026-05-05 18:54 41.10548 111.74945 35921 ft 444 kts 333°
2026-05-05 18:55 41.16470 111.72587 35938 ft 443 kts 333°
2026-05-05 18:55 41.22376 111.70228 35952 ft 443 kts 333°
2026-05-05 18:56 41.28268 111.67868 35957 ft 442 kts 333°
2026-05-05 18:56 41.34154 111.65509 35962 ft 441 kts 333°
2026-05-05 18:57 41.40031 111.63149 35968 ft 441 kts 333°
2026-05-05 18:57 41.45898 111.60788 35973 ft 440 kts 333°
2026-05-05 18:58 41.51757 111.58426 35976 ft 439 kts 333°
2026-05-05 18:58 41.57608 111.56063 35978 ft 439 kts 333°
2026-05-05 18:59 41.63453 111.53698 35984 ft 438 kts 333°
2026-05-05 18:59 41.69280 111.51334 35984 ft 438 kts 333°
2026-05-05 19:00 41.75107 111.48967 35988 ft 437 kts 333°
2026-05-05 19:00 41.80921 111.46602 35991 ft 436 kts 333°
2026-05-05 19:01 41.86719 111.44238 35992 ft 435 kts 332°
2026-05-05 19:01 41.92462 111.41892 35996 ft 434 kts 332°
2026-05-05 19:02 41.98245 111.39523 35995 ft 434 kts 332°
2026-05-05 19:02 42.04014 111.37156 36003 ft 433 kts 332°
2026-05-05 19:03 42.08812 111.35185 36012 ft 433 kts 332°
2026-05-05 19:03 42.14575 111.32814 36003 ft 433 kts 332°
2026-05-05 19:04 42.20341 111.30437 36009 ft 433 kts 332°
2026-05-05 19:04 42.26122 111.28058 36008 ft 434 kts 332°
2026-05-05 19:05 42.31890 111.25683 36015 ft 434 kts 332°
2026-05-05 19:05 42.37659 111.23305 36009 ft 433 kts 332°
2026-05-05 19:06 42.43428 111.20922 36015 ft 433 kts 332°
2026-05-05 19:06 42.49188 111.18538 36022 ft 433 kts 332°
2026-05-05 19:07 42.54956 111.16144 36025 ft 433 kts 332°
2026-05-05 19:07 42.60713 111.13751 36025 ft 433 kts 332°
2026-05-05 19:08 42.66441 111.11366 36028 ft 433 kts 331°
2026-05-05 19:08 42.72197 111.08964 36027 ft 433 kts 331°
2026-05-05 19:09 42.77963 111.06553 36023 ft 433 kts 331°
2026-05-05 19:09 42.83724 111.04141 36024 ft 433 kts 331°
2026-05-05 19:10 42.89487 111.01721 36027 ft 433 kts 331°
2026-05-05 19:10 42.95256 110.99295 36024 ft 434 kts 330°
2026-05-05 19:11 43.01028 110.96863 36018 ft 434 kts 330°
2026-05-05 19:11 43.06798 110.94427 36024 ft 434 kts 330°
2026-05-05 19:12 43.12565 110.91988 36024 ft 434 kts 330°
2026-05-05 19:12 43.18234 110.89332 36028 ft 422 kts 323°
2026-05-05 19:13 43.20772 110.87520 36027 ft 411 kts 317°
2026-05-05 19:13 43.23080 110.85298 36025 ft 400 kts 310°
2026-05-05 19:13 43.27065 110.80108 36024 ft 393 kts 306°
2026-05-05 19:14 43.30852 110.74717 36028 ft 392 kts 305°
2026-05-05 19:14 43.34615 110.69301 36027 ft 391 kts 305°
2026-05-05 19:15 43.38380 110.63908 36033 ft 391 kts 305°
2026-05-05 19:15 43.42151 110.58523 36031 ft 390 kts 305°
2026-05-05 19:16 43.45888 110.53182 36035 ft 389 kts 305°
2026-05-05 19:16 43.49641 110.47805 36038 ft 389 kts 305°
2026-05-05 19:17 43.53391 110.42421 36045 ft 389 kts 304°
2026-05-05 19:17 43.57138 110.37032 36045 ft 389 kts 304°
2026-05-05 19:18 43.60880 110.31639 36046 ft 389 kts 304°
2026-05-05 19:18 43.64621 110.26236 36050 ft 389 kts 304°
2026-05-05 19:19 43.68362 110.20823 36059 ft 390 kts 304°
2026-05-05 19:19 43.72103 110.15398 36059 ft 390 kts 304°
2026-05-05 19:20 43.75843 110.09967 36052 ft 390 kts 304°
2026-05-05 19:20 43.79571 110.04542 36067 ft 391 kts 304°
2026-05-05 19:21 43.83307 109.99095 36065 ft 391 kts 304°
2026-05-05 19:21 43.87048 109.93630 36068 ft 391 kts 304°
2026-05-05 19:22 43.90807 109.88127 36071 ft 392 kts 304°
2026-05-05 19:22 43.94558 109.82626 36076 ft 393 kts 304°
2026-05-05 19:23 43.98316 109.77103 36074 ft 394 kts 304°
2026-05-05 19:23 44.02058 109.71594 36077 ft 394 kts 304°
2026-05-05 19:24 44.05827 109.66034 36085 ft 395 kts 304°
2026-05-05 19:24 44.09602 109.60455 36088 ft 396 kts 304°
2026-05-05 19:25 44.13376 109.54864 36092 ft 396 kts 304°
2026-05-05 19:25 44.17154 109.49257 36093 ft 397 kts 304°
2026-05-05 19:26 44.20941 109.43626 36100 ft 397 kts 304°
2026-05-05 19:26 44.24721 109.37994 36104 ft 398 kts 304°
2026-05-05 19:27 44.28476 109.32389 36108 ft 398 kts 304°
2026-05-05 19:27 44.32257 109.26733 36112 ft 398 kts 305°
2026-05-05 19:28 44.36032 109.21074 36124 ft 398 kts 305°
2026-05-05 19:28 44.39787 109.15433 36122 ft 398 kts 305°
2026-05-05 19:29 44.43562 109.09753 36133 ft 398 kts 305°
2026-05-05 19:29 44.47323 109.04080 36140 ft 397 kts 305°
2026-05-05 19:30 44.51084 108.98396 36144 ft 398 kts 305°
2026-05-05 19:30 44.54839 108.92707 36151 ft 398 kts 305°
2026-05-05 19:31 44.58604 108.86993 36157 ft 398 kts 305°
2026-05-05 19:31 44.62342 108.81309 36167 ft 399 kts 305°
2026-05-05 19:32 44.66105 108.75574 36168 ft 399 kts 305°
2026-05-05 19:32 44.69871 108.69824 36174 ft 400 kts 305°
2026-05-05 19:33 44.73643 108.64052 36183 ft 401 kts 305°
2026-05-05 19:33 44.77426 108.58250 36187 ft 402 kts 305°
2026-05-05 19:34 44.81205 108.52445 36192 ft 402 kts 305°
2026-05-05 19:35 44.86866 108.43723 36199 ft 403 kts 305°
2026-05-05 19:35 44.90648 108.37883 36203 ft 404 kts 305°
2026-05-05 19:36 44.94428 108.32042 36206 ft 404 kts 305°
2026-05-05 19:36 44.98223 108.26148 36208 ft 405 kts 305°
2026-05-05 19:37 45.02016 108.20242 36210 ft 405 kts 305°
2026-05-05 19:37 45.05798 108.14345 36219 ft 406 kts 305°
2026-05-05 19:38 45.09580 108.08438 36221 ft 406 kts 305°
2026-05-05 19:38 45.13377 108.02494 36218 ft 407 kts 305°
2026-05-05 19:39 45.17199 107.96500 36223 ft 408 kts 305°
2026-05-05 19:39 45.20997 107.90529 36230 ft 409 kts 305°
2026-05-05 19:40 45.24798 107.84540 36230 ft 409 kts 305°
2026-05-05 19:40 45.28581 107.78568 36229 ft 410 kts 305°
2026-05-05 19:41 45.32413 107.72504 36233 ft 411 kts 305°
2026-05-05 19:41 45.36239 107.66437 36233 ft 412 kts 305°
2026-05-05 19:42 45.40073 107.60344 36240 ft 413 kts 305°
2026-05-05 19:42 45.43911 107.54230 36245 ft 414 kts 305°
2026-05-05 19:43 45.47734 107.48127 36252 ft 416 kts 305°
2026-05-05 19:43 45.51590 107.41957 36257 ft 417 kts 306°
2026-05-05 19:44 45.55460 107.35752 36261 ft 418 kts 306°
2026-05-05 19:44 45.59329 107.29535 36265 ft 419 kts 306°
2026-05-05 19:45 45.63184 107.23326 36273 ft 420 kts 306°
2026-05-05 19:45 45.67067 107.17058 36279 ft 421 kts 306°
2026-05-05 19:46 45.70955 107.10767 36280 ft 423 kts 306°
2026-05-05 19:46 45.74853 107.04445 36294 ft 424 kts 306°
2026-05-05 19:47 45.78772 106.98077 36295 ft 426 kts 306°
2026-05-05 19:47 45.82696 106.91684 36289 ft 427 kts 306°
2026-05-05 19:48 45.85968 106.86341 36301 ft 428 kts 306°
2026-05-05 19:48 45.90540 106.78864 36306 ft 429 kts 307°
2026-05-05 19:49 45.94493 106.72380 36310 ft 430 kts 307°
2026-05-05 19:49 45.97766 106.67000 36311 ft 431 kts 307°
2026-05-05 19:50 46.01702 106.60517 36316 ft 431 kts 307°
2026-05-05 19:50 46.05645 106.54008 36318 ft 431 kts 307°
2026-05-05 19:51 46.09584 106.47490 36317 ft 431 kts 307°
2026-05-05 19:51 46.13520 106.40961 36320 ft 431 kts 307°
2026-05-05 19:52 46.17447 106.34433 36326 ft 431 kts 307°
2026-05-05 19:52 46.21380 106.27877 36330 ft 431 kts 307°
2026-05-05 19:53 46.25299 106.21329 36332 ft 431 kts 307°
2026-05-05 19:53 46.29214 106.14774 36340 ft 431 kts 308°
2026-05-05 19:54 46.33125 106.08208 36340 ft 430 kts 308°
2026-05-05 19:54 46.36999 106.01690 36345 ft 430 kts 308°
2026-05-05 19:55 46.40890 105.95128 36352 ft 429 kts 308°
2026-05-05 19:55 46.44776 105.88558 36355 ft 428 kts 308°
2026-05-05 19:56 46.48649 105.81998 36357 ft 427 kts 308°
2026-05-05 19:56 46.52498 105.75456 36362 ft 427 kts 308°
2026-05-05 19:57 46.56367 105.68862 36363 ft 426 kts 308°
2026-05-05 19:57 46.60194 105.62328 36367 ft 426 kts 308°
2026-05-05 19:58 46.64030 105.55763 36369 ft 425 kts 308°
2026-05-05 19:58 46.67849 105.49213 36372 ft 425 kts 308°
2026-05-05 19:59 46.71678 105.42628 36380 ft 425 kts 308°
2026-05-05 19:59 46.75481 105.36074 36381 ft 425 kts 308°
2026-05-05 20:00 46.79318 105.29443 36383 ft 426 kts 308°
2026-05-05 20:00 46.83123 105.22853 36390 ft 426 kts 308°
2026-05-05 20:01 46.86949 105.16211 36394 ft 426 kts 307°
2026-05-05 20:01 46.90741 105.09611 36391 ft 426 kts 307°
2026-05-05 20:02 46.94547 105.02970 36397 ft 427 kts 307°
2026-05-05 20:02 46.98383 104.96261 36402 ft 427 kts 307°
2026-05-05 20:03 47.02165 104.89630 36406 ft 427 kts 307°
2026-05-05 20:03 47.05976 104.82932 36405 ft 428 kts 307°
2026-05-05 20:04 47.09795 104.76202 36409 ft 428 kts 307°
2026-05-05 20:04 47.13602 104.69481 36413 ft 429 kts 307°
2026-05-05 20:05 47.17416 104.62727 36418 ft 430 kts 307°
2026-05-05 20:05 47.21224 104.55968 36426 ft 430 kts 307°
2026-05-05 20:06 47.25041 104.49175 36430 ft 431 kts 307°
2026-05-05 20:06 47.28860 104.42362 36435 ft 432 kts 307°
2026-05-05 20:07 47.32681 104.35529 36438 ft 433 kts 307°
2026-05-05 20:07 47.36526 104.28637 36447 ft 434 kts 307°
2026-05-05 20:08 47.40347 104.21769 36446 ft 434 kts 307°
2026-05-05 20:08 47.44176 104.14874 36449 ft 434 kts 308°
2026-05-05 20:09 47.48003 104.07963 36455 ft 435 kts 308°
2026-05-05 20:09 47.51820 104.01044 36458 ft 435 kts 308°
2026-05-05 20:10 47.55650 103.94090 36461 ft 436 kts 308°
2026-05-05 20:10 47.59488 103.87104 36461 ft 437 kts 308°
2026-05-05 20:11 47.63317 103.80115 36464 ft 437 kts 308°
2026-05-05 20:11 47.67137 103.73125 36461 ft 438 kts 308°
2026-05-05 20:12 47.70964 103.66106 36468 ft 438 kts 308°
2026-05-05 20:12 47.74797 103.59055 36465 ft 438 kts 308°
2026-05-05 20:13 47.78612 103.52021 36467 ft 438 kts 308°
2026-05-05 20:13 47.82431 103.44961 36469 ft 438 kts 308°
2026-05-05 20:14 47.86248 103.37885 36463 ft 438 kts 308°
2026-05-05 20:14 47.90055 103.30811 36460 ft 439 kts 308°
2026-05-05 20:15 47.93881 103.23695 36457 ft 439 kts 308°
2026-05-05 20:15 47.97671 103.16606 36456 ft 440 kts 308°
2026-05-05 20:16 48.01478 103.09463 36450 ft 440 kts 308°
2026-05-05 20:16 48.05297 103.02287 36447 ft 441 kts 308°
2026-05-05 20:17 48.09129 102.95068 36448 ft 441 kts 308°
2026-05-05 20:17 48.12917 102.87915 36452 ft 441 kts 308°
2026-05-05 20:18 48.16731 102.80691 36453 ft 442 kts 308°
2026-05-05 20:18 48.20536 102.73466 36454 ft 442 kts 308°
2026-05-05 20:19 48.24347 102.66211 36457 ft 443 kts 308°
2026-05-05 20:19 48.28142 102.58964 36459 ft 443 kts 308°
2026-05-05 20:20 48.31963 102.51652 36457 ft 443 kts 308°
2026-05-05 20:20 48.35778 102.44330 36459 ft 443 kts 308°
2026-05-05 20:21 48.39558 102.37055 36454 ft 444 kts 308°
2026-05-05 20:21 48.43366 102.29706 36454 ft 444 kts 308°
2026-05-05 20:22 48.47112 102.22457 36452 ft 444 kts 308°
2026-05-05 20:22 48.50933 102.15044 36451 ft 444 kts 308°
2026-05-05 20:23 48.54698 102.07717 36447 ft 444 kts 308°
2026-05-05 20:23 48.58477 102.00345 36440 ft 444 kts 308°
2026-05-05 20:24 48.62257 101.92951 36442 ft 444 kts 308°
2026-05-05 20:24 48.66026 101.85557 36444 ft 444 kts 308°
2026-05-05 20:25 48.69792 101.78150 36439 ft 444 kts 308°
2026-05-05 20:25 48.73555 101.70728 36440 ft 444 kts 308°
2026-05-05 20:26 48.77311 101.63309 36428 ft 444 kts 308°
2026-05-05 20:26 48.81057 101.55869 36424 ft 444 kts 308°
2026-05-05 20:27 48.84801 101.48415 36417 ft 444 kts 308°
2026-05-05 20:27 48.88542 101.40949 36417 ft 444 kts 308°
2026-05-05 20:28 48.92281 101.33470 36413 ft 444 kts 308°
2026-05-05 20:28 48.96009 101.25991 36413 ft 444 kts 308°
2026-05-05 20:29 48.99731 101.18503 36413 ft 444 kts 308°
2026-05-05 20:29 49.03433 101.11034 36418 ft 444 kts 309°
2026-05-05 20:30 49.07136 101.03544 36424 ft 444 kts 309°
2026-05-05 20:30 49.10842 100.96026 36430 ft 443 kts 309°
2026-05-05 20:31 49.14541 100.88502 36434 ft 443 kts 309°
2026-05-05 20:31 49.18242 100.80951 36442 ft 443 kts 308°
2026-05-05 20:32 49.21930 100.73403 36440 ft 443 kts 309°
2026-05-05 20:32 49.25615 100.65845 36431 ft 442 kts 308°
2026-05-05 20:33 49.29288 100.58289 36418 ft 442 kts 309°
2026-05-05 20:33 49.32957 100.50715 36417 ft 442 kts 309°
2026-05-05 20:34 49.36615 100.43146 36408 ft 441 kts 308°
2026-05-05 20:34 49.40243 100.35618 36400 ft 441 kts 308°
2026-05-05 20:35 49.43889 100.28032 36402 ft 441 kts 308°
2026-05-05 20:35 49.47521 100.20453 36405 ft 440 kts 308°
2026-05-05 20:36 49.51107 100.12949 36403 ft 440 kts 308°
2026-05-05 20:36 49.54762 100.05279 36404 ft 439 kts 308°
2026-05-05 20:37 49.57733 99.99027 36404 ft 439 kts 308°
2026-05-05 20:37 49.61314 99.91471 36399 ft 438 kts 308°
2026-05-05 20:38 49.64972 99.83738 36398 ft 438 kts 308°
2026-05-05 20:38 49.68549 99.76142 36394 ft 437 kts 308°
2026-05-05 20:39 49.71951 99.68901 36390 ft 436 kts 308°
2026-05-05 20:39 49.75506 99.61313 36390 ft 436 kts 308°
2026-05-05 20:40 49.79056 99.53713 36391 ft 435 kts 308°
2026-05-05 20:40 49.82618 99.46069 36386 ft 435 kts 308°
2026-05-05 20:41 49.86132 99.38506 36384 ft 435 kts 308°
2026-05-05 20:41 49.89671 99.30867 36384 ft 435 kts 308°
2026-05-05 20:42 49.93167 99.23299 36381 ft 434 kts 308°
2026-05-05 20:42 49.96714 99.15597 36385 ft 434 kts 308°
2026-05-05 20:43 50.00196 99.08015 36375 ft 434 kts 308°
2026-05-05 20:43 50.03683 99.00399 36378 ft 434 kts 308°
2026-05-05 20:44 50.07189 98.92723 36377 ft 433 kts 308°
2026-05-05 20:44 50.10682 98.85050 36375 ft 433 kts 308°
2026-05-05 20:45 50.15892 98.73570 36375 ft 432 kts 308°
2026-05-05 20:45 50.19338 98.65950 36376 ft 432 kts 308°
2026-05-05 20:46 50.22794 98.58282 36377 ft 432 kts 307°
2026-05-05 20:46 50.26246 98.50601 36375 ft 432 kts 307°
2026-05-05 20:47 50.29689 98.42917 36375 ft 431 kts 307°
2026-05-05 20:47 50.33129 98.35218 36377 ft 432 kts 307°
2026-05-05 20:48 50.36569 98.27500 36375 ft 432 kts 307°
2026-05-05 20:48 50.39991 98.19779 36636 ft 430 kts 307°
2026-05-05 20:49 50.41694 98.15922 36839 ft 430 kts 307°
2026-05-05 20:49 50.43373 98.12110 37009 ft 431 kts 307°
2026-05-05 20:49 50.45099 98.08191 37170 ft 432 kts 307°
2026-05-05 20:49 50.46804 98.04314 37324 ft 432 kts 307°
2026-05-05 20:50 50.48490 98.00476 37496 ft 432 kts 307°
2026-05-05 20:50 50.50201 97.96574 37636 ft 434 kts 307°
2026-05-05 20:50 50.51914 97.92665 37770 ft 435 kts 307°
2026-05-05 20:50 50.53626 97.88752 37933 ft 435 kts 306°
2026-05-05 20:51 50.55338 97.84829 38103 ft 435 kts 306°
2026-05-05 20:51 50.57052 97.80898 38253 ft 436 kts 306°
2026-05-05 20:51 50.60508 97.72954 38296 ft 442 kts 306°
2026-05-05 20:52 50.63976 97.64963 38288 ft 442 kts 306°
2026-05-05 20:52 50.67441 97.56948 38296 ft 442 kts 306°
2026-05-05 20:53 50.70896 97.48934 38300 ft 442 kts 306°
2026-05-05 20:53 50.74344 97.40911 38297 ft 442 kts 306°
2026-05-05 20:54 50.77767 97.32923 38293 ft 442 kts 306°
2026-05-05 20:54 50.81204 97.24878 38297 ft 441 kts 306°
2026-05-05 20:55 50.84635 97.16824 38293 ft 442 kts 306°
2026-05-05 20:55 50.88060 97.08757 38286 ft 441 kts 306°
2026-05-05 20:56 50.91475 97.00687 38288 ft 441 kts 306°
2026-05-05 20:56 50.94887 96.92600 38289 ft 441 kts 306°
2026-05-05 20:57 50.98296 96.84497 38286 ft 441 kts 306°
2026-05-05 20:57 51.01697 96.76386 38286 ft 441 kts 305°
2026-05-05 20:58 51.05068 96.68323 38288 ft 441 kts 305°
2026-05-05 20:58 51.08457 96.60194 38286 ft 441 kts 305°
2026-05-05 20:59 51.11848 96.52031 38287 ft 441 kts 305°
2026-05-05 20:59 51.15230 96.43867 38286 ft 442 kts 305°
2026-05-05 21:00 51.18606 96.35690 38291 ft 442 kts 305°
2026-05-05 21:00 51.21980 96.27490 38292 ft 442 kts 305°
2026-05-05 21:01 51.25353 96.19268 38293 ft 443 kts 305°
2026-05-05 21:01 51.28636 96.11239 38289 ft 443 kts 305°
2026-05-05 21:02 51.31993 96.03006 38281 ft 443 kts 305°
2026-05-05 21:02 51.35347 95.94749 38282 ft 443 kts 305°
2026-05-05 21:03 51.38708 95.86455 38286 ft 443 kts 305°
2026-05-05 21:03 51.42048 95.78185 38261 ft 443 kts 305°
2026-05-05 21:04 51.45399 95.69859 38256 ft 443 kts 305°
2026-05-05 21:04 51.48720 95.61579 38248 ft 443 kts 305°
2026-05-05 21:05 51.52067 95.53212 38248 ft 444 kts 305°
2026-05-05 21:05 51.55372 95.44919 38230 ft 444 kts 305°
2026-05-05 21:06 51.58701 95.36541 38239 ft 444 kts 305°
2026-05-05 21:06 51.62019 95.28165 38216 ft 444 kts 305°
2026-05-05 21:07 51.65331 95.19776 38229 ft 444 kts 305°
2026-05-05 21:07 51.68617 95.11424 38222 ft 444 kts 305°
2026-05-05 21:08 51.71919 95.03003 38220 ft 444 kts 305°
2026-05-05 21:08 51.75219 94.94560 38215 ft 444 kts 305°
2026-05-05 21:09 51.78510 94.86113 38220 ft 445 kts 305°
2026-05-05 21:09 51.81803 94.77635 38214 ft 445 kts 305°
2026-05-05 21:10 51.85089 94.69144 38213 ft 445 kts 304°
2026-05-05 21:10 51.88371 94.60636 38210 ft 445 kts 304°
2026-05-05 21:11 51.91650 94.52107 38209 ft 446 kts 304°
2026-05-05 21:11 51.94898 94.43625 38214 ft 446 kts 304°
2026-05-05 21:12 51.98172 94.35052 38213 ft 447 kts 304°
2026-05-05 21:12 52.01435 94.26480 38214 ft 446 kts 304°
2026-05-05 21:13 52.04692 94.17897 38218 ft 446 kts 304°
2026-05-05 21:13 52.07930 94.09334 38218 ft 445 kts 304°
2026-05-05 21:14 52.11170 94.00729 38219 ft 445 kts 304°
2026-05-05 21:14 52.14463 93.92378 38221 ft 442 kts 310°
2026-05-05 21:15 52.18682 93.85177 38223 ft 439 kts 318°
2026-05-05 21:15 52.23212 93.78513 38217 ft 438 kts 319°
2026-05-05 21:16 52.27782 93.71913 38213 ft 438 kts 320°
2026-05-05 21:16 52.32303 93.65349 38209 ft 437 kts 319°
2026-05-05 21:17 52.36843 93.58709 38203 ft 437 kts 319°
2026-05-05 21:17 52.41373 93.52056 38213 ft 437 kts 319°
2026-05-05 21:18 52.45895 93.45392 38211 ft 437 kts 319°
2026-05-05 21:18 52.50414 93.38715 38213 ft 437 kts 319°
2026-05-05 21:19 52.54718 93.32337 38217 ft 437 kts 319°
2026-05-05 21:19 52.59241 93.25617 38207 ft 437 kts 319°
2026-05-05 21:20 52.63731 93.18924 38213 ft 437 kts 319°
2026-05-05 21:20 52.68245 93.12179 38206 ft 437 kts 319°
2026-05-05 21:21 52.72725 93.05466 38210 ft 437 kts 319°
2026-05-05 21:21 52.77218 92.98715 38209 ft 437 kts 319°
2026-05-05 21:22 52.81715 92.91936 38201 ft 436 kts 319°
2026-05-05 21:22 52.86184 92.85178 38197 ft 436 kts 319°
2026-05-05 21:23 52.90654 92.78402 38193 ft 436 kts 318°
2026-05-05 21:23 52.95110 92.71625 38189 ft 435 kts 318°
2026-05-05 21:24 52.98849 92.65923 38179 ft 435 kts 318°
2026-05-05 21:24 53.03286 92.59140 38172 ft 434 kts 318°
2026-05-05 21:25 53.07717 92.52345 38170 ft 433 kts 318°
2026-05-05 21:25 53.12141 92.45540 38163 ft 433 kts 318°
2026-05-05 21:26 53.16553 92.38735 38154 ft 432 kts 318°
2026-05-05 21:26 53.20968 92.31904 38148 ft 432 kts 318°
2026-05-05 21:27 53.25368 92.25077 38145 ft 431 kts 318°
2026-05-05 21:27 53.29734 92.18284 38141 ft 430 kts 318°
2026-05-05 21:28 53.34094 92.11480 38139 ft 430 kts 318°
2026-05-05 21:28 53.38476 92.04621 38139 ft 429 kts 317°
2026-05-05 21:29 53.42680 91.97517 38133 ft 429 kts 314°
2026-05-05 21:29 53.46666 91.90109 38130 ft 428 kts 313°
2026-05-05 21:30 53.50656 91.82721 38126 ft 427 kts 314°
2026-05-05 21:30 53.54666 91.75376 38127 ft 426 kts 314°
2026-05-05 21:31 53.58653 91.67995 38124 ft 425 kts 313°
2026-05-05 21:31 53.62616 91.60641 38127 ft 424 kts 313°
2026-05-05 21:32 53.66607 91.53227 38129 ft 424 kts 313°
2026-05-05 21:32 53.70539 91.45908 38129 ft 423 kts 313°
2026-05-05 21:33 53.74439 91.38431 38132 ft 423 kts 309°
2026-05-05 21:33 53.77925 91.30470 38129 ft 423 kts 308°
2026-05-05 21:34 53.81356 91.22383 38125 ft 423 kts 307°
2026-05-05 21:34 53.84781 91.14240 38119 ft 422 kts 307°
2026-05-05 21:35 53.88191 91.06123 38113 ft 422 kts 307°
2026-05-05 21:35 53.91574 90.98056 38100 ft 422 kts 307°
2026-05-05 21:36 53.94975 90.89927 38094 ft 422 kts 307°
2026-05-05 21:36 53.98369 90.81782 38087 ft 422 kts 307°
2026-05-05 21:37 54.01751 90.73645 38092 ft 423 kts 307°
2026-05-05 21:37 54.05129 90.65486 38084 ft 423 kts 306°
2026-05-05 21:38 54.08509 90.57297 38078 ft 422 kts 306°
2026-05-05 21:38 54.11892 90.49074 38076 ft 423 kts 306°
2026-05-05 21:39 54.15270 90.40836 38072 ft 423 kts 306°
2026-05-05 21:39 54.18629 90.32617 38075 ft 423 kts 306°
2026-05-05 21:40 54.22001 90.24337 38069 ft 424 kts 306°
2026-05-05 21:40 54.25359 90.16066 38061 ft 424 kts 306°
2026-05-05 21:41 54.28720 90.07763 38063 ft 424 kts 306°
2026-05-05 21:41 54.32062 89.99478 38059 ft 424 kts 306°
2026-05-05 21:42 54.35420 89.91124 38053 ft 425 kts 306°
2026-05-05 21:42 54.38772 89.82756 38050 ft 425 kts 305°
2026-05-05 21:43 54.42120 89.74372 38051 ft 426 kts 305°
2026-05-05 21:43 54.45452 89.66003 38047 ft 426 kts 305°
2026-05-05 21:44 54.48782 89.57603 38047 ft 426 kts 305°
2026-05-05 21:44 54.52139 89.49109 38047 ft 427 kts 305°
2026-05-05 21:45 54.55449 89.40708 38045 ft 427 kts 305°
2026-05-05 21:45 54.58786 89.32207 38043 ft 427 kts 305°
2026-05-05 21:46 54.62110 89.23712 38038 ft 428 kts 305°
2026-05-05 21:46 54.65448 89.15150 38047 ft 429 kts 304°
2026-05-05 21:47 54.68761 89.06625 38035 ft 429 kts 304°
2026-05-05 21:47 54.72081 88.98049 38039 ft 429 kts 304°
2026-05-05 21:48 54.75397 88.89458 38039 ft 430 kts 304°
2026-05-05 21:48 54.78720 88.80816 38037 ft 430 kts 304°
2026-05-05 21:49 54.82014 88.72221 38035 ft 430 kts 304°
2026-05-05 21:49 54.85343 88.63528 38033 ft 431 kts 304°
2026-05-05 21:50 54.88639 88.54894 38032 ft 431 kts 304°
2026-05-05 21:50 54.91942 88.46207 38036 ft 431 kts 304°
2026-05-05 21:51 54.95265 88.37437 38033 ft 431 kts 304°
2026-05-05 21:51 54.98543 88.28756 38032 ft 431 kts 304°
2026-05-05 21:52 55.03484 88.15614 38030 ft 431 kts 304°
2026-05-05 21:53 55.06758 88.06866 38032 ft 431 kts 303°
2026-05-05 21:53 55.10034 87.98084 38026 ft 431 kts 303°
2026-05-05 21:54 55.13283 87.89341 38026 ft 431 kts 303°
2026-05-05 21:54 55.16559 87.80494 38022 ft 431 kts 303°
2026-05-05 21:55 55.19814 87.71684 38021 ft 431 kts 303°
2026-05-05 21:55 55.23032 87.62889 38020 ft 431 kts 303°
2026-05-05 21:56 55.26278 87.53983 38023 ft 431 kts 303°
2026-05-05 21:56 55.29498 87.45129 38019 ft 431 kts 303°
2026-05-05 21:57 55.32700 87.36298 38018 ft 431 kts 302°
2026-05-05 21:57 55.35932 87.27354 38016 ft 431 kts 302°
2026-05-05 21:58 55.39118 87.18502 38017 ft 431 kts 302°
2026-05-05 21:58 55.42312 87.09595 38013 ft 431 kts 302°
2026-05-05 21:59 55.45510 87.00645 38012 ft 431 kts 302°
2026-05-05 21:59 55.48686 86.91725 38009 ft 431 kts 302°
2026-05-05 22:00 55.51879 86.82723 38010 ft 431 kts 302°
2026-05-05 22:00 55.55039 86.73783 38011 ft 431 kts 302°
2026-05-05 22:01 55.58214 86.64765 38009 ft 431 kts 302°
2026-05-05 22:01 55.61364 86.55788 38008 ft 431 kts 301°
2026-05-05 22:02 55.64534 86.46718 38007 ft 431 kts 301°
2026-05-05 22:02 55.67660 86.37740 38006 ft 431 kts 301°
2026-05-05 22:03 55.70823 86.28623 38006 ft 431 kts 301°
2026-05-05 22:03 55.73941 86.19601 38001 ft 431 kts 301°
2026-05-05 22:04 55.77079 86.10490 37994 ft 432 kts 301°
2026-05-05 22:04 55.80199 86.01408 37991 ft 432 kts 301°
2026-05-05 22:05 55.83332 85.92218 37992 ft 433 kts 300°
2026-05-05 22:05 55.86444 85.83033 37990 ft 433 kts 300°
2026-05-05 22:06 55.89535 85.73886 37985 ft 433 kts 300°
2026-05-05 22:06 55.92629 85.64704 37981 ft 434 kts 300°
2026-05-05 22:07 55.95743 85.55430 37979 ft 434 kts 300°
2026-05-05 22:07 55.98776 85.46139 37975 ft 434 kts 299°
2026-05-05 22:08 56.01770 85.36736 37970 ft 435 kts 298°
2026-05-05 22:08 56.04746 85.27380 37965 ft 435 kts 299°
2026-05-05 22:09 56.07256 85.19499 37964 ft 436 kts 299°
2026-05-05 22:09 56.10247 85.10087 37964 ft 436 kts 298°
2026-05-05 22:10 56.13241 85.00633 37962 ft 437 kts 298°
2026-05-05 22:10 56.16237 84.91131 37960 ft 437 kts 298°
2026-05-05 22:11 56.19229 84.81604 37958 ft 437 kts 298°
2026-05-05 22:11 56.22202 84.72097 37958 ft 438 kts 298°
2026-05-05 22:12 56.25186 84.62517 37957 ft 438 kts 298°
2026-05-05 22:12 56.28142 84.52991 37959 ft 439 kts 298°
2026-05-05 22:13 56.31127 84.43331 37960 ft 440 kts 298°
2026-05-05 22:13 56.34093 84.33692 37960 ft 440 kts 298°
2026-05-05 22:14 56.37039 84.24081 37954 ft 441 kts 297°
2026-05-05 22:14 56.40008 84.14354 37956 ft 441 kts 297°
2026-05-05 22:15 56.42950 84.04675 37964 ft 442 kts 297°
2026-05-05 22:15 56.45911 83.94893 37961 ft 442 kts 297°
2026-05-05 22:16 56.48862 83.85105 37962 ft 443 kts 297°
2026-05-05 22:16 56.51804 83.75309 37963 ft 443 kts 297°
2026-05-05 22:17 56.54717 83.65565 37964 ft 443 kts 297°
2026-05-05 22:17 56.57666 83.55660 37964 ft 444 kts 297°
2026-05-05 22:18 56.60577 83.45841 37967 ft 444 kts 297°
2026-05-05 22:18 56.63498 83.35947 37964 ft 444 kts 297°
2026-05-05 22:19 56.66405 83.26056 37968 ft 445 kts 297°
2026-05-05 22:19 56.69304 83.16155 37963 ft 445 kts 297°
2026-05-05 22:20 56.72218 83.06157 37965 ft 445 kts 297°
2026-05-05 22:20 56.75106 82.96207 37970 ft 445 kts 297°
2026-05-05 22:21 56.77988 82.86237 37967 ft 446 kts 296°
2026-05-05 22:21 56.80868 82.76229 37955 ft 446 kts 296°
2026-05-05 22:22 56.83758 82.66143 37972 ft 446 kts 296°
2026-05-05 22:22 56.86624 82.56095 37960 ft 446 kts 296°
2026-05-05 22:23 56.89490 82.46005 37954 ft 446 kts 296°
2026-05-05 22:23 56.92339 82.35929 37949 ft 446 kts 296°
2026-05-05 22:24 56.95179 82.25842 37949 ft 446 kts 296°
2026-05-05 22:24 56.98014 82.15732 37950 ft 445 kts 296°
2026-05-05 22:25 57.00841 82.05604 37950 ft 445 kts 296°
2026-05-05 22:25 57.03858 81.95713 37938 ft 446 kts 300°
2026-05-05 22:26 57.07078 81.85998 37940 ft 446 kts 300°
2026-05-05 22:26 57.10278 81.76220 37940 ft 446 kts 299°
2026-05-05 22:27 57.13436 81.66356 37929 ft 446 kts 299°
2026-05-05 22:27 57.16542 81.56552 37931 ft 446 kts 298°
2026-05-05 22:28 57.19653 81.46682 37928 ft 446 kts 298°
2026-05-05 22:28 57.22765 81.36780 37926 ft 446 kts 298°
2026-05-05 22:29 57.25894 81.26782 37923 ft 446 kts 298°
2026-05-05 22:29 57.28974 81.16902 37919 ft 446 kts 298°
2026-05-05 22:30 57.32086 81.06879 37918 ft 446 kts 298°
2026-05-05 22:30 57.35150 80.96967 37918 ft 446 kts 298°
2026-05-05 22:31 57.38233 80.86950 37914 ft 446 kts 298°
2026-05-05 22:31 57.41280 80.77009 37914 ft 446 kts 298°
2026-05-05 22:32 57.44355 80.66932 37916 ft 446 kts 297°
2026-05-05 22:32 57.47398 80.56919 37916 ft 446 kts 297°
2026-05-05 22:33 57.50461 80.46796 37910 ft 447 kts 297°
2026-05-05 22:33 57.53481 80.36772 37912 ft 447 kts 297°
2026-05-05 22:34 57.56522 80.26634 37914 ft 448 kts 297°
2026-05-05 22:34 57.59553 80.16486 37918 ft 448 kts 297°
2026-05-05 22:35 57.62561 80.06373 37896 ft 448 kts 297°
2026-05-05 22:35 57.65592 79.96135 37922 ft 449 kts 297°
2026-05-05 22:36 57.68590 79.85965 37908 ft 449 kts 297°
2026-05-05 22:36 57.71599 79.75715 37906 ft 449 kts 297°
2026-05-05 22:37 57.74597 79.65437 37909 ft 449 kts 296°
2026-05-05 22:37 57.77538 79.55157 37907 ft 450 kts 296°
2026-05-05 22:38 57.80481 79.44797 37904 ft 450 kts 296°
2026-05-05 22:38 57.83420 79.34430 37899 ft 450 kts 296°
2026-05-05 22:39 57.86350 79.24062 37901 ft 451 kts 296°
2026-05-05 22:39 57.89279 79.13655 37902 ft 451 kts 296°
2026-05-05 22:40 57.92208 79.03201 37900 ft 451 kts 296°
2026-05-05 22:40 57.95123 78.92747 37901 ft 451 kts 296°
2026-05-05 22:41 57.98043 78.82227 37898 ft 452 kts 295°
2026-05-05 22:41 58.00932 78.71772 37904 ft 452 kts 295°
2026-05-05 22:42 58.03836 78.61210 37899 ft 452 kts 295°
2026-05-05 22:42 58.06732 78.50633 37896 ft 453 kts 295°
2026-05-05 22:43 58.09618 78.40040 37898 ft 453 kts 295°
2026-05-05 22:43 58.12474 78.29508 37899 ft 453 kts 295°
2026-05-05 22:44 58.15365 78.18798 37902 ft 454 kts 295°
2026-05-05 22:44 58.18218 78.08182 37903 ft 454 kts 295°
2026-05-05 22:45 58.21068 77.97523 37901 ft 454 kts 295°
2026-05-05 22:45 58.23919 77.86811 37900 ft 454 kts 295°
2026-05-05 22:46 58.26745 77.76143 37901 ft 455 kts 295°
2026-05-05 22:46 58.29591 77.65346 37902 ft 455 kts 295°
2026-05-05 22:47 58.32401 77.54638 37902 ft 455 kts 294°
2026-05-05 22:47 58.35221 77.43836 37895 ft 457 kts 294°
2026-05-05 22:48 58.38055 77.32923 37902 ft 461 kts 294°
2026-05-05 22:48 58.40883 77.21985 37901 ft 461 kts 294°
2026-05-05 22:49 58.43707 77.11012 37904 ft 461 kts 294°
2026-05-05 22:49 58.46527 76.99996 37903 ft 461 kts 294°
2026-05-05 22:50 58.49330 76.88995 37906 ft 461 kts 294°
2026-05-05 22:50 58.52136 76.77927 37898 ft 462 kts 294°
2026-05-05 22:51 58.54933 76.66840 37897 ft 462 kts 294°
2026-05-05 22:51 58.57717 76.55752 37893 ft 462 kts 294°
2026-05-05 22:52 58.61121 76.45222 37899 ft 465 kts 303°
2026-05-05 22:52 58.64918 76.35193 37907 ft 466 kts 304°
2026-05-05 22:53 58.68751 76.25251 37905 ft 466 kts 304°
2026-05-05 22:53 58.72613 76.15184 37909 ft 466 kts 304°
2026-05-05 22:54 58.75802 76.06807 37909 ft 466 kts 304°
2026-05-05 22:54 58.79623 75.96716 37909 ft 467 kts 304°
2026-05-05 22:55 58.83445 75.86574 37895 ft 467 kts 304°
2026-05-05 22:55 58.87242 75.76458 37900 ft 467 kts 304°
2026-05-05 22:56 58.91047 75.66279 37922 ft 467 kts 304°
2026-05-05 22:56 58.94863 75.56025 37909 ft 467 kts 304°
2026-05-05 22:57 58.98649 75.45806 37914 ft 468 kts 304°
2026-05-05 22:57 59.02418 75.35591 37916 ft 468 kts 304°
2026-05-05 22:58 59.06196 75.25308 37917 ft 468 kts 303°
2026-05-05 22:58 59.09973 75.14982 37920 ft 468 kts 303°
2026-05-05 22:59 59.13731 75.04662 37921 ft 468 kts 303°
2026-05-05 22:59 59.17497 74.94277 37923 ft 468 kts 303°
2026-05-05 23:00 59.23141 74.78624 37925 ft 468 kts 303°
2026-05-05 23:00 59.26870 74.68225 37922 ft 469 kts 303°
2026-05-05 23:01 59.30584 74.57822 37923 ft 469 kts 303°
2026-05-05 23:01 59.34023 74.46942 37932 ft 467 kts 295°
2026-05-05 23:02 59.36814 74.35429 37920 ft 467 kts 294°
2026-05-05 23:02 59.39499 74.23826 37929 ft 467 kts 293°
2026-05-05 23:03 59.42149 74.12268 37928 ft 467 kts 293°
2026-05-05 23:03 59.44822 74.00594 37924 ft 467 kts 293°
2026-05-05 23:04 59.47464 73.89021 37928 ft 467 kts 293°
2026-05-05 23:04 59.50129 73.77293 37923 ft 467 kts 293°
2026-05-05 23:05 59.52747 73.65704 37924 ft 467 kts 293°
2026-05-05 23:05 59.55386 73.53956 37928 ft 466 kts 293°
2026-05-05 23:06 59.57996 73.42272 37925 ft 466 kts 293°
2026-05-05 23:06 59.60600 73.30553 37927 ft 466 kts 292°
2026-05-05 23:07 59.63187 73.18842 37926 ft 466 kts 292°
2026-05-05 23:07 59.65776 73.07058 37926 ft 466 kts 292°
2026-05-05 23:08 59.68313 72.95449 37924 ft 466 kts 292°
2026-05-05 23:08 59.70907 72.83507 37922 ft 466 kts 292°
2026-05-05 23:09 59.73462 72.71677 37922 ft 466 kts 292°
2026-05-05 23:09 59.75989 72.59914 37922 ft 466 kts 292°
2026-05-05 23:10 59.78513 72.48095 37915 ft 466 kts 292°
2026-05-05 23:10 59.81040 72.36195 37918 ft 466 kts 292°
2026-05-05 23:11 59.83538 72.24361 37911 ft 465 kts 292°
2026-05-05 23:11 59.86025 72.12512 37911 ft 465 kts 291°
2026-05-05 23:12 59.88524 72.00539 37918 ft 465 kts 291°
2026-05-05 23:12 59.90981 71.88696 37913 ft 465 kts 291°
2026-05-05 23:13 59.93433 71.76807 37916 ft 465 kts 291°
2026-05-05 23:13 59.95879 71.64883 37916 ft 465 kts 291°
2026-05-05 23:14 59.98318 71.52918 37913 ft 464 kts 291°
2026-05-05 23:14 60.00750 71.40917 37911 ft 464 kts 291°
2026-05-05 23:15 60.03146 71.29023 37910 ft 464 kts 291°
2026-05-05 23:15 60.05550 71.17020 37909 ft 464 kts 291°
2026-05-05 23:16 60.07939 71.05023 37913 ft 464 kts 291°
2026-05-05 23:16 60.10319 70.92994 37907 ft 464 kts 290°
2026-05-05 23:17 60.12681 70.80984 37907 ft 463 kts 290°
2026-05-05 23:17 60.15038 70.68931 37908 ft 463 kts 290°
2026-05-05 23:18 60.17373 70.56912 37899 ft 463 kts 290°
2026-05-05 23:18 60.19706 70.44836 37899 ft 463 kts 290°
2026-05-05 23:19 60.22019 70.32783 37885 ft 463 kts 290°
2026-05-05 23:19 60.24320 70.20725 37892 ft 463 kts 290°
2026-05-05 23:20 60.26622 70.08587 37880 ft 462 kts 290°
2026-05-05 23:20 60.28910 69.96458 37878 ft 462 kts 290°
2026-05-05 23:21 60.31170 69.84339 37875 ft 462 kts 289°
2026-05-05 23:21 60.33413 69.72239 37872 ft 462 kts 289°
2026-05-05 23:22 60.35648 69.60132 37872 ft 462 kts 290°
2026-05-05 23:22 60.37892 69.47957 37866 ft 461 kts 289°
2026-05-05 23:23 60.40120 69.35774 37861 ft 461 kts 289°
2026-05-05 23:23 60.42334 69.23588 37857 ft 461 kts 289°
2026-05-05 23:24 60.44523 69.11470 37853 ft 461 kts 289°
2026-05-05 23:24 60.46720 68.99227 37847 ft 460 kts 289°
2026-05-05 23:25 60.48899 68.87010 37846 ft 460 kts 289°
2026-05-05 23:25 60.51059 68.74836 37844 ft 460 kts 289°
2026-05-05 23:26 60.53217 68.62612 37835 ft 460 kts 289°
2026-05-05 23:26 60.55359 68.50355 37838 ft 460 kts 288°
2026-05-05 23:27 60.57484 68.38124 37834 ft 460 kts 288°
2026-05-05 23:27 60.59610 68.25817 37831 ft 460 kts 288°
2026-05-05 23:28 60.61711 68.13581 37831 ft 460 kts 288°
2026-05-05 23:28 60.63810 68.01272 37824 ft 460 kts 288°
2026-05-05 23:29 60.65895 67.88957 37828 ft 461 kts 288°
2026-05-05 23:29 60.67982 67.76553 37825 ft 461 kts 288°
2026-05-05 23:30 60.70053 67.64164 37819 ft 461 kts 288°
2026-05-05 23:30 60.72095 67.51868 37819 ft 461 kts 288°
2026-05-05 23:31 60.74156 67.39353 37814 ft 461 kts 287°
2026-05-05 23:31 60.76163 67.26975 37815 ft 461 kts 287°
2026-05-05 23:32 60.78172 67.14513 37810 ft 461 kts 287°
2026-05-05 23:32 60.80164 67.02092 37807 ft 461 kts 287°
2026-05-05 23:33 60.82155 66.89600 37811 ft 461 kts 287°
2026-05-05 23:33 60.84133 66.77106 37801 ft 460 kts 287°
2026-05-05 23:34 60.86089 66.64658 37800 ft 460 kts 287°
2026-05-05 23:34 60.88042 66.52135 37797 ft 460 kts 287°
2026-05-05 23:35 60.89979 66.39635 37796 ft 460 kts 287°
2026-05-05 23:35 60.91905 66.27112 37790 ft 460 kts 287°
2026-05-05 23:36 60.93829 66.14504 37788 ft 460 kts 286°
2026-05-05 23:36 60.95724 66.02002 37788 ft 460 kts 286°
2026-05-05 23:37 60.97612 65.89471 37780 ft 459 kts 286°
2026-05-05 23:37 60.99491 65.76906 37783 ft 459 kts 286°
2026-05-05 23:38 61.01370 65.64255 37777 ft 459 kts 286°
2026-05-05 23:38 61.03218 65.51714 37774 ft 459 kts 286°
2026-05-05 23:39 61.05069 65.39063 37770 ft 459 kts 286°
2026-05-05 23:39 61.06905 65.26416 37772 ft 459 kts 285°
2026-05-05 23:40 61.08722 65.13805 37770 ft 459 kts 285°
2026-05-05 23:40 61.10533 65.01136 37762 ft 459 kts 285°
2026-05-05 23:41 61.12320 64.88546 37764 ft 459 kts 285°
2026-05-05 23:41 61.14111 64.75820 37767 ft 459 kts 285°
2026-05-05 23:42 61.15876 64.63190 37764 ft 459 kts 285°
2026-05-05 23:42 61.17635 64.50497 37761 ft 459 kts 285°
2026-05-05 23:43 61.19102 64.39888 37758 ft 458 kts 285°
2026-05-05 23:43 61.21129 64.25095 37754 ft 458 kts 285°
2026-05-05 23:44 61.22573 64.14466 37754 ft 458 kts 284°
2026-05-05 23:44 61.24292 64.01730 37751 ft 458 kts 284°
2026-05-05 23:45 61.26000 63.88973 37750 ft 458 kts 284°
2026-05-05 23:45 61.27694 63.76220 37749 ft 458 kts 284°
2026-05-05 23:46 61.29226 63.63382 37748 ft 457 kts 280°
2026-05-05 23:46 61.30367 63.50372 37743 ft 457 kts 279°
2026-05-05 23:47 61.31443 63.37307 37745 ft 457 kts 279°
2026-05-05 23:47 61.32495 63.24302 37741 ft 457 kts 279°
2026-05-05 23:48 61.33548 63.11195 37738 ft 457 kts 279°
2026-05-05 23:48 61.34582 62.98207 37740 ft 457 kts 278°
2026-05-05 23:49 61.35611 62.85116 37731 ft 456 kts 278°
2026-05-05 23:49 61.36622 62.72095 37731 ft 456 kts 278°
2026-05-05 23:50 61.37633 62.59068 37732 ft 456 kts 278°
2026-05-05 23:50 61.38639 62.46005 37733 ft 456 kts 278°
2026-05-05 23:51 61.39633 62.32913 37730 ft 457 kts 278°
2026-05-05 23:51 61.40615 62.19812 37732 ft 457 kts 278°
2026-05-05 23:52 61.41586 62.06694 37731 ft 457 kts 278°
2026-05-05 23:52 61.42545 61.93553 37729 ft 458 kts 278°
2026-05-05 23:53 61.43493 61.80383 37724 ft 458 kts 278°
2026-05-05 23:53 61.44427 61.67222 37725 ft 459 kts 278°
2026-05-05 23:54 61.45352 61.53998 37729 ft 459 kts 278°
2026-05-05 23:54 61.46257 61.40867 37726 ft 460 kts 277°
2026-05-05 23:55 61.47162 61.27557 37723 ft 460 kts 277°
2026-05-05 23:55 61.48051 61.14311 37719 ft 460 kts 277°
2026-05-05 23:56 61.48930 61.01149 37722 ft 460 kts 277°
2026-05-05 23:56 61.49801 60.87869 37719 ft 459 kts 277°
2026-05-05 23:57 61.50653 60.74677 37717 ft 459 kts 277°
2026-05-05 23:57 61.51502 60.61338 37725 ft 458 kts 277°
2026-05-05 23:58 61.52327 60.48165 37723 ft 457 kts 277°
2026-05-05 23:58 61.53137 60.35028 37724 ft 456 kts 277°
2026-05-05 23:59 61.53941 60.21784 37730 ft 455 kts 277°
2026-05-05 23:59 61.54721 60.08704 37730 ft 454 kts 276°
2026-05-06 00:00 61.55497 59.95530 37739 ft 453 kts 276°
2026-05-06 00:00 61.56257 59.82528 37722 ft 451 kts 276°
2026-05-06 00:01 61.56633 59.75950 37729 ft 451 kts 276°
2026-05-06 00:01 61.56773 59.73490 37724 ft 450 kts 276°
2026-05-06 00:02 61.57508 59.60450 37822 ft 449 kts 276°
2026-05-06 00:02 61.57870 59.53958 38145 ft 447 kts 276°
2026-05-06 00:02 61.58227 59.47495 38439 ft 445 kts 276°
2026-05-06 00:03 61.58581 59.41033 38572 ft 446 kts 276°
2026-05-06 00:03 61.58933 59.34558 38659 ft 448 kts 276°
2026-05-06 00:03 61.59624 59.21617 38871 ft 450 kts 276°
2026-05-06 00:04 61.59973 59.15003 38991 ft 450 kts 275°
2026-05-06 00:04 61.60309 59.08597 39097 ft 451 kts 275°
2026-05-06 00:04 61.60644 59.02172 39234 ft 452 kts 275°
2026-05-06 00:04 61.60990 58.95475 39345 ft 452 kts 275°
2026-05-06 00:05 61.61659 58.82289 39587 ft 453 kts 275°
2026-05-06 00:05 61.61979 58.75892 39689 ft 454 kts 275°
2026-05-06 00:06 61.62641 58.62453 39740 ft 458 kts 275°
2026-05-06 00:06 61.63283 58.49126 39737 ft 458 kts 275°
2026-05-06 00:07 61.63964 58.35770 39739 ft 458 kts 276°
2026-05-06 00:07 61.64697 58.22463 39739 ft 458 kts 276°
2026-05-06 00:08 61.65403 58.09348 39743 ft 458 kts 275°
2026-05-06 00:08 61.66105 57.95883 39737 ft 458 kts 275°
2026-05-06 00:09 61.66748 57.83213 39738 ft 458 kts 275°
2026-05-06 00:09 61.67422 57.69685 39739 ft 459 kts 275°
2026-05-06 00:10 61.68073 57.56372 39735 ft 459 kts 275°
2026-05-06 00:10 61.68713 57.43011 39741 ft 459 kts 275°
2026-05-06 00:11 61.69339 57.29655 39740 ft 459 kts 275°
2026-05-06 00:11 61.69956 57.16242 39737 ft 459 kts 275°
2026-05-06 00:12 61.70556 57.02864 39737 ft 459 kts 274°
2026-05-06 00:12 61.71142 56.89518 39733 ft 459 kts 274°
2026-05-06 00:13 61.71717 56.76128 39737 ft 458 kts 274°
2026-05-06 00:13 61.72277 56.62767 39738 ft 458 kts 274°
2026-05-06 00:14 61.72828 56.49324 39733 ft 458 kts 274°
2026-05-06 00:14 61.73361 56.35978 39741 ft 458 kts 274°
2026-05-06 00:15 61.73882 56.22616 39740 ft 458 kts 274°
2026-05-06 00:15 61.74391 56.09196 39740 ft 458 kts 274°
2026-05-06 00:16 61.74887 55.95809 39739 ft 458 kts 273°
2026-05-06 00:16 61.75372 55.82348 39740 ft 458 kts 273°
2026-05-06 00:17 61.75837 55.69062 39739 ft 458 kts 273°
2026-05-06 00:17 61.76293 55.55657 39739 ft 458 kts 273°
2026-05-06 00:18 61.76737 55.42242 39740 ft 457 kts 273°
2026-05-06 00:18 61.77166 55.28850 39740 ft 457 kts 272°
2026-05-06 00:19 61.77583 55.15444 39740 ft 457 kts 272°
2026-05-06 00:19 61.77987 55.02026 39743 ft 457 kts 272°
2026-05-06 00:20 61.78378 54.88597 39742 ft 457 kts 272°
2026-05-06 00:20 61.78753 54.75298 39739 ft 456 kts 272°
2026-05-06 00:21 61.79133 54.61842 39741 ft 456 kts 272°
2026-05-06 00:21 61.79520 54.48525 39743 ft 456 kts 272°
2026-05-06 00:22 61.79896 54.35179 39744 ft 456 kts 272°
2026-05-06 00:22 61.80257 54.21745 39745 ft 455 kts 272°
2026-05-06 00:23 61.80599 54.08448 39751 ft 455 kts 272°
2026-05-06 00:23 61.80930 53.95068 39749 ft 455 kts 272°
2026-05-06 00:24 61.81249 53.81686 39750 ft 455 kts 272°
2026-05-06 00:24 61.81553 53.68382 39745 ft 455 kts 271°
2026-05-06 00:25 61.81846 53.54981 39745 ft 455 kts 271°
2026-05-06 00:25 61.82124 53.41657 39742 ft 455 kts 271°
2026-05-06 00:26 61.82399 53.28276 39751 ft 454 kts 271°
2026-05-06 00:26 61.82663 53.14971 39752 ft 454 kts 271°
2026-05-06 00:27 61.82917 53.01519 39750 ft 454 kts 271°
2026-05-06 00:27 61.83155 52.88199 39748 ft 454 kts 271°
2026-05-06 00:28 61.83380 52.74848 39754 ft 454 kts 271°
2026-05-06 00:28 61.83593 52.61486 39743 ft 454 kts 271°
2026-05-06 00:29 61.83792 52.48140 39744 ft 454 kts 270°
2026-05-06 00:29 61.83979 52.34799 39742 ft 454 kts 270°
2026-05-06 00:30 61.84133 52.21444 39739 ft 454 kts 269°
2026-05-06 00:30 61.84166 52.10295 39739 ft 454 kts 269°
2026-05-06 00:31 61.84175 51.96889 39735 ft 454 kts 269°
2026-05-06 00:31 61.84188 51.83528 39729 ft 454 kts 269°
2026-05-06 00:32 61.84201 51.70157 39731 ft 454 kts 269°
2026-05-06 00:32 61.84205 51.56780 39725 ft 454 kts 269°
2026-05-06 00:33 61.84193 51.43451 39730 ft 454 kts 269°
2026-05-06 00:33 61.84164 51.30065 39731 ft 454 kts 268°
2026-05-06 00:34 61.84125 51.16739 39729 ft 454 kts 268°
2026-05-06 00:34 61.84073 51.03430 39731 ft 454 kts 268°
2026-05-06 00:35 61.84008 50.90067 39738 ft 454 kts 268°
2026-05-06 00:35 61.83930 50.76768 39737 ft 454 kts 268°
2026-05-06 00:36 61.83839 50.63421 39736 ft 454 kts 268°
2026-05-06 00:36 61.83735 50.50027 39732 ft 453 kts 268°
2026-05-06 00:37 61.83619 50.36743 39726 ft 453 kts 268°
2026-05-06 00:37 61.83489 50.23358 39720 ft 453 kts 268°
2026-05-06 00:38 61.83347 50.10008 39722 ft 453 kts 267°
2026-05-06 00:38 61.83191 49.96635 39724 ft 453 kts 267°
2026-05-06 00:39 61.83024 49.83346 39730 ft 453 kts 267°
2026-05-06 00:39 61.82851 49.70057 39727 ft 453 kts 268°
2026-05-06 00:40 61.82794 49.56641 39726 ft 454 kts 268°
2026-05-06 00:40 61.82769 49.43337 39730 ft 453 kts 268°
2026-05-06 00:41 61.82706 49.30073 39729 ft 453 kts 267°
2026-05-06 00:41 61.82534 49.16756 39731 ft 453 kts 267°
2026-05-06 00:42 61.82330 49.03353 39731 ft 453 kts 267°
2026-05-06 00:42 61.82129 48.90048 39732 ft 453 kts 267°
2026-05-06 00:43 61.81925 48.76817 39735 ft 453 kts 266°
2026-05-06 00:43 61.81708 48.63462 39737 ft 453 kts 266°
2026-05-06 00:44 61.81479 48.50153 39738 ft 453 kts 266°
2026-05-06 00:44 61.81235 48.36810 39738 ft 452 kts 266°
2026-05-06 00:45 61.80981 48.23613 39739 ft 452 kts 266°
2026-05-06 00:45 61.80713 48.10315 39740 ft 452 kts 266°
2026-05-06 00:46 61.80432 47.97065 39744 ft 452 kts 266°
2026-05-06 00:46 61.80137 47.83717 39741 ft 452 kts 266°
2026-05-06 00:47 61.79832 47.70492 39739 ft 452 kts 266°
2026-05-06 00:47 61.79513 47.57224 39739 ft 452 kts 265°
2026-05-06 00:48 61.79180 47.43968 39739 ft 452 kts 265°
2026-05-06 00:48 61.78845 47.30762 39739 ft 452 kts 265°
2026-05-06 00:49 61.78513 47.17503 39739 ft 452 kts 265°
2026-05-06 00:49 61.78162 47.04181 39737 ft 452 kts 265°
2026-05-06 00:50 61.77714 46.90954 39740 ft 452 kts 264°
2026-05-06 00:50 61.77227 46.77758 39735 ft 452 kts 264°
2026-05-06 00:51 61.76738 46.64518 39735 ft 452 kts 264°
2026-05-06 00:51 61.76247 46.51284 39731 ft 452 kts 264°
2026-05-06 00:52 61.75747 46.38087 39729 ft 452 kts 264°
2026-05-06 00:52 61.75233 46.24882 39730 ft 452 kts 264°
2026-05-06 00:53 61.74707 46.11694 39730 ft 451 kts 264°
2026-05-06 00:53 61.74169 45.98515 39728 ft 451 kts 264°
2026-05-06 00:54 61.73615 45.85276 39725 ft 451 kts 264°
2026-05-06 00:54 61.73054 45.72171 39724 ft 451 kts 263°
2026-05-06 00:55 61.72477 45.59019 39724 ft 451 kts 263°
2026-05-06 00:55 61.71885 45.45802 39725 ft 451 kts 263°
2026-05-06 00:56 61.71285 45.32680 39729 ft 451 kts 263°
2026-05-06 00:56 61.70669 45.19500 39724 ft 451 kts 263°
2026-05-06 00:57 61.70043 45.06352 39723 ft 451 kts 263°
2026-05-06 00:57 61.69426 44.93211 39724 ft 450 kts 263°
2026-05-06 00:58 61.68820 44.80133 39721 ft 450 kts 263°
2026-05-06 00:58 61.68199 44.67060 39723 ft 450 kts 263°
2026-05-06 00:59 61.67557 44.53913 39724 ft 450 kts 263°
2026-05-06 00:59 61.66903 44.40787 39724 ft 450 kts 263°
2026-05-06 01:00 61.66240 44.27765 39722 ft 450 kts 263°
2026-05-06 01:00 61.65561 44.14651 39721 ft 450 kts 262°
2026-05-06 01:01 61.64870 44.01553 39721 ft 450 kts 262°
2026-05-06 01:01 61.64167 43.88484 39727 ft 450 kts 262°
2026-05-06 01:02 61.63455 43.75475 39721 ft 449 kts 262°
2026-05-06 01:02 61.62727 43.62417 39723 ft 449 kts 262°
2026-05-06 01:03 61.61987 43.49371 39723 ft 449 kts 262°
2026-05-06 01:03 61.61240 43.36409 39727 ft 449 kts 262°
2026-05-06 01:04 61.60477 43.23401 39729 ft 449 kts 262°
2026-05-06 01:04 61.59679 43.10035 39727 ft 449 kts 262°
2026-05-06 01:05 61.58892 42.97045 39730 ft 450 kts 261°
2026-05-06 01:05 61.58086 42.83975 39721 ft 450 kts 261°
2026-05-06 01:06 61.57273 42.70982 39730 ft 450 kts 261°
2026-05-06 01:06 61.56446 42.57962 39721 ft 450 kts 261°
2026-05-06 01:07 61.55607 42.44979 39730 ft 450 kts 261°
2026-05-06 01:07 61.54755 42.31977 39730 ft 449 kts 261°
2026-05-06 01:08 61.53908 42.18988 39735 ft 449 kts 261°
2026-05-06 01:08 61.53062 42.06034 39728 ft 449 kts 261°
2026-05-06 01:09 61.52203 41.93082 39729 ft 449 kts 261°
2026-05-06 01:09 61.51478 41.82321 39720 ft 449 kts 261°
2026-05-06 01:10 61.50442 41.67193 39725 ft 449 kts 261°
2026-05-06 01:10 61.49694 41.56434 39727 ft 449 kts 261°
2026-05-06 01:11 61.48779 41.43431 39727 ft 449 kts 261°
2026-05-06 01:11 61.47860 41.30548 39730 ft 449 kts 260°
2026-05-06 01:12 61.46926 41.17638 39731 ft 449 kts 260°
2026-05-06 01:12 61.45985 41.04812 39731 ft 448 kts 260°
2026-05-06 01:13 61.45028 40.91921 39735 ft 448 kts 260°
2026-05-06 01:13 61.44052 40.78970 39734 ft 448 kts 260°
2026-05-06 01:14 61.42582 40.59771 39734 ft 448 kts 260°
2026-05-06 01:14 61.41579 40.46875 39734 ft 449 kts 259°
2026-05-06 01:15 61.40571 40.34080 39734 ft 449 kts 259°
2026-05-06 01:15 61.39547 40.21244 39732 ft 449 kts 259°
2026-05-06 01:16 61.38507 40.08377 39737 ft 448 kts 259°
2026-05-06 01:16 61.37464 39.95609 39738 ft 448 kts 259°
2026-05-06 01:17 61.36397 39.82715 39735 ft 448 kts 259°
2026-05-06 01:17 61.35333 39.70016 39737 ft 448 kts 259°
2026-05-06 01:18 61.34248 39.57213 39739 ft 448 kts 259°
2026-05-06 01:18 61.33157 39.44494 39741 ft 448 kts 259°
2026-05-06 01:19 61.32045 39.31666 39739 ft 448 kts 259°
2026-05-06 01:19 61.30926 39.18922 39742 ft 447 kts 259°
2026-05-06 01:20 61.29803 39.06267 39741 ft 447 kts 258°
2026-05-06 01:20 61.28664 38.93549 39744 ft 447 kts 258°
2026-05-06 01:21 61.27527 38.80834 39744 ft 447 kts 258°
2026-05-06 01:21 61.26381 38.68117 39747 ft 447 kts 258°
2026-05-06 01:22 61.25220 38.55388 39748 ft 447 kts 258°
2026-05-06 01:22 61.24055 38.42775 39749 ft 447 kts 258°
2026-05-06 01:23 61.22732 38.30210 39752 ft 446 kts 255°
2026-05-06 01:23 61.21153 38.17697 39751 ft 446 kts 255°
2026-05-06 01:24 61.19583 38.05293 39753 ft 446 kts 255°
2026-05-06 01:24 61.18042 37.92853 39755 ft 446 kts 255°
2026-05-06 01:25 61.16509 37.80426 39755 ft 446 kts 255°
2026-05-06 01:25 61.14960 37.67955 39756 ft 446 kts 255°
2026-05-06 01:26 61.13405 37.55562 39758 ft 446 kts 255°
2026-05-06 01:26 61.11832 37.43138 39757 ft 446 kts 255°
2026-05-06 01:27 61.10241 37.30669 39760 ft 446 kts 255°
2026-05-06 01:27 61.08656 37.18359 39762 ft 446 kts 255°
2026-05-06 01:28 61.07041 37.05904 39762 ft 446 kts 255°
2026-05-06 01:28 61.05424 36.93540 39764 ft 446 kts 254°
2026-05-06 01:29 61.03803 36.81242 39762 ft 446 kts 254°
2026-05-06 01:29 61.02162 36.68892 39761 ft 446 kts 254°
2026-05-06 01:30 61.00504 36.56510 39764 ft 446 kts 254°
2026-05-06 01:30 60.98841 36.44189 39764 ft 446 kts 254°
2026-05-06 01:31 60.97162 36.31982 39761 ft 446 kts 252°
2026-05-06 01:31 60.95149 36.19837 39758 ft 446 kts 250°
2026-05-06 01:32 60.93043 36.07868 39761 ft 445 kts 250°
2026-05-06 01:32 60.90968 35.95883 39763 ft 445 kts 251°
2026-05-06 01:33 60.88917 35.83890 39761 ft 445 kts 251°
2026-05-06 01:33 60.86874 35.71959 39765 ft 445 kts 251°
2026-05-06 01:34 60.84811 35.59992 39760 ft 445 kts 250°
2026-05-06 01:34 60.82740 35.48066 39766 ft 445 kts 250°
2026-05-06 01:35 60.80655 35.36125 39761 ft 445 kts 250°
2026-05-06 01:35 60.78562 35.24263 39763 ft 444 kts 250°
2026-05-06 01:36 60.76449 35.12362 39760 ft 444 kts 250°
2026-05-06 01:36 60.74327 35.00478 39769 ft 444 kts 250°
2026-05-06 01:37 60.72205 34.88658 39765 ft 444 kts 250°
2026-05-06 01:37 60.70056 34.76763 39764 ft 444 kts 250°
2026-05-06 01:38 60.67917 34.65001 39767 ft 444 kts 250°
2026-05-06 01:38 60.65751 34.53160 39769 ft 444 kts 250°
2026-05-06 01:39 60.63591 34.41421 39773 ft 444 kts 250°
2026-05-06 01:39 60.61420 34.29697 39772 ft 444 kts 249°
2026-05-06 01:40 60.59221 34.17897 39773 ft 444 kts 249°
2026-05-06 01:40 60.57028 34.06193 39773 ft 444 kts 249°
2026-05-06 01:41 60.54814 33.94453 39776 ft 444 kts 249°
2026-05-06 01:41 60.52584 33.82700 39777 ft 444 kts 249°
2026-05-06 01:42 60.50363 33.71060 39779 ft 444 kts 249°
2026-05-06 01:42 60.48122 33.59389 39780 ft 445 kts 249°
2026-05-06 01:43 60.45861 33.47681 39783 ft 445 kts 249°
2026-05-06 01:43 60.43596 33.36020 39785 ft 445 kts 249°
2026-05-06 01:44 60.41325 33.24400 39787 ft 445 kts 249°
2026-05-06 01:44 60.39045 33.12800 39788 ft 445 kts 249°
2026-05-06 01:45 60.36745 33.01169 39789 ft 445 kts 248°
2026-05-06 01:45 60.34445 32.89603 39796 ft 445 kts 248°
2026-05-06 01:46 60.32125 32.78002 39793 ft 445 kts 248°
2026-05-06 01:46 60.29791 32.66397 39795 ft 445 kts 248°
2026-05-06 01:47 60.27455 32.54850 39795 ft 445 kts 248°
2026-05-06 01:47 60.25116 32.43356 39798 ft 445 kts 248°
2026-05-06 01:48 60.22771 32.31898 39796 ft 445 kts 248°
2026-05-06 01:48 60.20412 32.20422 39796 ft 444 kts 248°
2026-05-06 01:49 60.18039 32.08902 39798 ft 444 kts 248°
2026-05-06 01:49 60.15935 31.98734 39797 ft 444 kts 248°
2026-05-06 01:50 60.13570 31.87369 39797 ft 444 kts 248°
2026-05-06 01:50 60.11184 31.75963 39795 ft 444 kts 248°
2026-05-06 01:51 60.08788 31.64538 39794 ft 444 kts 248°
2026-05-06 01:51 60.06365 31.53069 39800 ft 444 kts 248°
2026-05-06 01:52 60.04066 31.41636 39803 ft 444 kts 251°
2026-05-06 01:52 60.02116 31.29932 39802 ft 444 kts 252°
2026-05-06 01:53 60.00219 31.18209 39798 ft 444 kts 252°
2026-05-06 01:53 59.98311 31.06462 39800 ft 444 kts 252°
2026-05-06 01:54 59.96388 30.94749 39802 ft 445 kts 252°
2026-05-06 01:54 59.94441 30.82997 39805 ft 445 kts 252°
2026-05-06 01:55 59.92488 30.71287 39813 ft 445 kts 252°
2026-05-06 01:55 59.90534 30.59645 39818 ft 445 kts 251°
2026-05-06 01:56 59.88569 30.47963 39825 ft 445 kts 251°
2026-05-06 01:56 59.86599 30.36327 39830 ft 444 kts 251°
2026-05-06 01:57 59.84608 30.24644 39832 ft 444 kts 251°
2026-05-06 01:57 59.82611 30.12993 39829 ft 444 kts 251°
2026-05-06 01:58 59.80617 30.01400 39829 ft 444 kts 251°
2026-05-06 01:58 59.78611 29.89850 39828 ft 444 kts 251°
2026-05-06 01:59 59.76577 29.78215 39830 ft 444 kts 251°
2026-05-06 01:59 59.74549 29.66676 39833 ft 444 kts 251°
2026-05-06 02:00 59.72510 29.55142 39838 ft 444 kts 251°
2026-05-06 02:00 59.70399 29.43613 39846 ft 444 kts 250°
2026-05-06 02:01 59.68162 29.32199 39852 ft 444 kts 249°
2026-05-06 02:01 59.65920 29.20838 39858 ft 444 kts 249°
2026-05-06 02:02 59.63688 29.09474 39861 ft 444 kts 249°
2026-05-06 02:02 59.61453 28.98018 39869 ft 444 kts 250°
2026-05-06 02:03 59.59410 28.86551 39878 ft 444 kts 251°
2026-05-06 02:03 59.57411 28.75070 39877 ft 444 kts 251°
2026-05-06 02:04 59.55361 28.63527 39882 ft 444 kts 251°
2026-05-06 02:04 59.53292 28.52073 39883 ft 444 kts 251°
2026-05-06 02:05 59.51223 28.40653 39880 ft 444 kts 251°
2026-05-06 02:05 59.49165 28.29209 39884 ft 444 kts 251°
2026-05-06 02:06 59.47089 28.17728 39889 ft 444 kts 251°
2026-05-06 02:06 59.45000 28.06291 39894 ft 444 kts 250°
2026-05-06 02:07 59.42836 27.94980 39896 ft 444 kts 250°
2026-05-06 02:07 59.40615 27.83617 39899 ft 444 kts 250°
2026-05-06 02:08 59.38407 27.72327 39902 ft 444 kts 250°
2026-05-06 02:08 59.36183 27.60963 39905 ft 444 kts 250°
2026-05-06 02:09 59.33974 27.49727 39910 ft 444 kts 249°
2026-05-06 02:09 59.31990 27.38237 39912 ft 444 kts 254°
2026-05-06 02:10 59.30341 27.26592 39911 ft 444 kts 255°
2026-05-06 02:10 59.28665 27.14981 39913 ft 444 kts 254°
2026-05-06 02:11 59.26918 27.03435 39916 ft 444 kts 253°
2026-05-06 02:11 59.25141 26.91950 39920 ft 443 kts 253°
2026-05-06 02:12 59.23334 26.80371 39922 ft 443 kts 253°
2026-05-06 02:12 59.21537 26.68910 39925 ft 443 kts 253°
2026-05-06 02:13 59.19716 26.57366 39929 ft 443 kts 253°
2026-05-06 02:13 59.17910 26.45985 39929 ft 443 kts 253°
2026-05-06 02:14 59.16076 26.34510 39933 ft 443 kts 253°
2026-05-06 02:14 59.14234 26.23054 39935 ft 443 kts 253°
2026-05-06 02:15 59.12376 26.11579 39936 ft 443 kts 253°
2026-05-06 02:15 59.10530 26.00253 39940 ft 443 kts 252°
2026-05-06 02:16 59.08659 25.88841 39941 ft 442 kts 252°
2026-05-06 02:16 59.06780 25.77456 39942 ft 442 kts 252°
2026-05-06 02:17 59.04880 25.66023 39942 ft 442 kts 252°
2026-05-06 02:17 59.02993 25.54736 39943 ft 442 kts 252°
2026-05-06 02:18 59.01080 25.43364 39948 ft 442 kts 252°
2026-05-06 02:18 58.99161 25.32030 39947 ft 442 kts 252°
2026-05-06 02:19 58.97239 25.20747 39951 ft 442 kts 252°
2026-05-06 02:19 58.95299 25.09429 39950 ft 442 kts 252°
2026-05-06 02:20 58.92374 24.92498 39950 ft 442 kts 252°
2026-05-06 02:21 58.90398 24.81145 39952 ft 442 kts 252°
2026-05-06 02:21 58.88430 24.69909 39953 ft 442 kts 251°
2026-05-06 02:22 58.86446 24.58650 39953 ft 442 kts 251°
2026-05-06 02:22 58.84460 24.47455 39954 ft 442 kts 251°
2026-05-06 02:23 58.82450 24.36186 39954 ft 443 kts 251°
2026-05-06 02:23 58.80435 24.24955 39952 ft 443 kts 251°
2026-05-06 02:24 58.78427 24.13833 39956 ft 443 kts 251°
2026-05-06 02:24 58.76382 24.02572 39953 ft 443 kts 251°
2026-05-06 02:25 58.74349 23.91443 39957 ft 443 kts 251°
2026-05-06 02:25 58.72294 23.80258 39955 ft 443 kts 251°
2026-05-06 02:26 58.70229 23.69087 39954 ft 443 kts 251°
2026-05-06 02:26 58.68156 23.57938 39955 ft 443 kts 251°
2026-05-06 02:27 58.66086 23.46874 39958 ft 443 kts 251°
2026-05-06 02:27 58.63981 23.35683 39955 ft 443 kts 251°
2026-05-06 02:28 58.61888 23.24616 39958 ft 443 kts 250°
2026-05-06 02:28 58.59776 23.13518 39957 ft 443 kts 250°
2026-05-06 02:29 58.57651 23.02412 39956 ft 443 kts 250°
2026-05-06 02:29 58.55533 22.91410 39958 ft 443 kts 250°
2026-05-06 02:30 58.53387 22.80321 39958 ft 443 kts 250°
2026-05-06 02:30 58.51235 22.69267 39962 ft 443 kts 250°
2026-05-06 02:31 58.49446 22.60121 39961 ft 443 kts 250°
2026-05-06 02:31 58.47271 22.49062 39963 ft 443 kts 250°
2026-05-06 02:32 58.45106 22.38117 39965 ft 443 kts 250°
2026-05-06 02:32 58.42922 22.27130 39965 ft 443 kts 250°
2026-05-06 02:33 58.40721 22.16125 39964 ft 443 kts 250°
2026-05-06 02:33 58.39994 22.12503 39963 ft 443 kts 250°
2026-05-06 02:34 58.36305 21.94225 39967 ft 444 kts 249°
2026-05-06 02:34 58.34065 21.83205 39964 ft 444 kts 249°
2026-05-06 02:35 58.31830 21.72270 39964 ft 444 kts 249°
2026-05-06 02:35 58.29597 21.61407 39967 ft 444 kts 249°
2026-05-06 02:36 58.27335 21.50456 39966 ft 444 kts 249°
2026-05-06 02:36 58.25070 21.39554 39965 ft 443 kts 249°
2026-05-06 02:37 58.22800 21.28686 39965 ft 443 kts 249°
2026-05-06 02:37 58.20509 21.17810 39969 ft 443 kts 248°
2026-05-06 02:38 58.18075 21.07052 39969 ft 444 kts 247°
2026-05-06 02:38 58.15590 20.96385 39980 ft 444 kts 247°
2026-05-06 02:39 58.13122 20.85753 39967 ft 444 kts 247°
2026-05-06 02:39 58.10643 20.75041 39983 ft 443 kts 247°
2026-05-06 02:40 58.08163 20.64355 39979 ft 443 kts 247°
2026-05-06 02:40 58.05680 20.53710 39964 ft 443 kts 247°
2026-05-06 02:41 58.03195 20.43113 39973 ft 443 kts 247°
2026-05-06 02:41 58.00662 20.32510 39979 ft 443 kts 246°
2026-05-06 02:42 57.98048 20.21908 39973 ft 443 kts 246°
2026-05-06 02:42 57.95446 20.11406 39973 ft 443 kts 246°
2026-05-06 02:43 57.92841 20.00892 39976 ft 443 kts 246°
2026-05-06 02:43 57.90243 19.90434 39973 ft 443 kts 246°
2026-05-06 02:44 57.87610 19.79885 39977 ft 443 kts 246°
2026-05-06 02:44 57.84986 19.69423 39978 ft 443 kts 246°
2026-05-06 02:45 57.82358 19.58996 39975 ft 442 kts 246°
2026-05-06 02:45 57.79730 19.48615 39973 ft 442 kts 245°
2026-05-06 02:46 57.77078 19.38193 39974 ft 442 kts 245°
2026-05-06 02:46 57.74422 19.27799 39977 ft 442 kts 245°
2026-05-06 02:47 57.71752 19.17403 39976 ft 442 kts 245°
2026-05-06 02:47 57.69081 19.07051 39978 ft 442 kts 245°
2026-05-06 02:48 57.66420 18.96784 39978 ft 442 kts 245°
2026-05-06 02:48 57.63737 18.86478 39974 ft 442 kts 245°
2026-05-06 02:49 57.61034 18.76143 39973 ft 442 kts 245°
2026-05-06 02:49 57.58333 18.65867 39971 ft 442 kts 245°
2026-05-06 02:50 57.55623 18.55600 39968 ft 441 kts 245°
2026-05-06 02:50 57.52902 18.45340 39969 ft 441 kts 245°
2026-05-06 02:51 57.50185 18.35140 39968 ft 441 kts 245°
2026-05-06 02:51 57.47461 18.24961 39969 ft 441 kts 244°
2026-05-06 02:52 57.44723 18.14776 39969 ft 441 kts 244°
2026-05-06 02:52 57.41969 18.04577 39971 ft 440 kts 244°
2026-05-06 02:53 57.39227 17.94467 39971 ft 440 kts 244°
2026-05-06 02:53 57.36470 17.84348 39973 ft 440 kts 244°
2026-05-06 02:54 57.33706 17.74249 39974 ft 440 kts 244°
2026-05-06 02:54 57.30931 17.64150 39970 ft 440 kts 244°
2026-05-06 02:55 57.28149 17.54074 39972 ft 440 kts 244°
2026-05-06 02:55 57.25355 17.43998 39973 ft 440 kts 244°
2026-05-06 02:56 57.22567 17.33987 39966 ft 440 kts 244°
2026-05-06 02:56 57.19754 17.23933 39969 ft 440 kts 244°
2026-05-06 02:57 57.16927 17.13871 39967 ft 440 kts 244°
2026-05-06 02:57 57.14126 17.03944 39968 ft 440 kts 244°
2026-05-06 02:58 57.11287 16.93929 39968 ft 440 kts 243°
2026-05-06 02:58 57.08448 16.83955 39967 ft 440 kts 243°
2026-05-06 02:59 57.05614 16.74042 39966 ft 440 kts 243°
2026-05-06 02:59 57.02748 16.64058 39962 ft 440 kts 243°
2026-05-06 03:00 56.99899 16.54177 39967 ft 440 kts 243°
2026-05-06 03:00 56.97018 16.44228 39969 ft 440 kts 243°
2026-05-06 03:01 56.94146 16.34351 39967 ft 440 kts 243°
2026-05-06 03:01 56.91281 16.24540 39968 ft 440 kts 243°
2026-05-06 03:02 56.88380 16.14651 39967 ft 440 kts 243°
2026-05-06 03:02 56.85483 16.04814 39969 ft 440 kts 243°
2026-05-06 03:03 56.82570 15.94966 39968 ft 439 kts 243°
2026-05-06 03:03 56.79657 15.85157 39967 ft 439 kts 242°
2026-05-06 03:04 56.76748 15.75406 39970 ft 439 kts 242°
2026-05-06 03:04 56.73831 15.65665 39968 ft 440 kts 242°
2026-05-06 03:05 56.70892 15.55895 39967 ft 440 kts 242°
2026-05-06 03:05 56.67932 15.46092 39966 ft 440 kts 242°
2026-05-06 03:06 56.64995 15.36408 39964 ft 440 kts 242°
2026-05-06 03:06 56.62033 15.26680 39959 ft 440 kts 242°
2026-05-06 03:07 56.59049 15.16921 39953 ft 440 kts 242°
2026-05-06 03:07 56.56070 15.07220 39952 ft 440 kts 242°
2026-05-06 03:08 56.53101 14.97590 39950 ft 440 kts 242°
2026-05-06 03:08 56.50111 14.87930 39952 ft 440 kts 242°
2026-05-06 03:09 56.47095 14.78228 39953 ft 441 kts 242°
2026-05-06 03:09 56.44087 14.68590 39956 ft 441 kts 241°
2026-05-06 03:10 56.41081 14.58998 39954 ft 441 kts 241°
2026-05-06 03:10 56.38044 14.49346 39954 ft 441 kts 241°
2026-05-06 03:11 56.35013 14.39754 39952 ft 441 kts 241°
2026-05-06 03:11 56.31956 14.30114 39956 ft 441 kts 241°
2026-05-06 03:12 56.28914 14.20561 39952 ft 442 kts 241°
2026-05-06 03:12 56.25851 14.10983 39953 ft 442 kts 241°
2026-05-06 03:13 56.22765 14.01371 39951 ft 442 kts 240°
2026-05-06 03:13 56.19701 13.91868 39947 ft 442 kts 240°
2026-05-06 03:14 56.16614 13.82329 39950 ft 442 kts 240°
2026-05-06 03:14 56.13499 13.72741 39948 ft 443 kts 240°
2026-05-06 03:15 56.10412 13.63279 39944 ft 443 kts 240°
2026-05-06 03:15 56.07286 13.53731 39941 ft 443 kts 240°
2026-05-06 03:16 56.04153 13.44205 39938 ft 443 kts 240°
2026-05-06 03:16 56.01024 13.34726 39937 ft 443 kts 240°
2026-05-06 03:17 55.97904 13.25311 39940 ft 443 kts 240°
2026-05-06 03:17 55.94757 13.15855 39942 ft 443 kts 240°
2026-05-06 03:18 55.92114 13.07937 39942 ft 443 kts 240°
2026-05-06 03:18 55.88960 12.98528 39942 ft 443 kts 240°
2026-05-06 03:19 55.85271 12.87565 39940 ft 443 kts 239°
2026-05-06 03:19 55.82099 12.78179 39938 ft 444 kts 239°
2026-05-06 03:20 55.77851 12.65665 39940 ft 444 kts 239°
2026-05-06 03:20 55.74634 12.56233 39940 ft 444 kts 239°
2026-05-06 03:21 55.71425 12.46861 39939 ft 444 kts 239°
2026-05-06 03:21 55.68208 12.37499 39938 ft 444 kts 239°
2026-05-06 03:22 55.65003 12.28210 39937 ft 444 kts 239°
2026-05-06 03:22 55.61777 12.18896 39938 ft 444 kts 239°
2026-05-06 03:23 55.58532 12.09561 39940 ft 445 kts 239°
2026-05-06 03:23 55.55296 12.00289 39938 ft 445 kts 239°
2026-05-06 03:24 55.52036 11.90984 39938 ft 445 kts 238°
2026-05-06 03:24 55.48769 11.81692 39938 ft 445 kts 238°
2026-05-06 03:25 55.45500 11.72432 39935 ft 445 kts 238°
2026-05-06 03:25 55.42230 11.63206 39939 ft 445 kts 238°
2026-05-06 03:26 55.38929 11.53925 39936 ft 446 kts 238°
2026-05-06 03:26 55.35641 11.44715 39937 ft 446 kts 238°
2026-05-06 03:27 55.32325 11.35463 39931 ft 446 kts 238°
2026-05-06 03:27 55.29025 11.26290 39935 ft 447 kts 238°
2026-05-06 03:28 55.25688 11.17049 39935 ft 447 kts 238°
2026-05-06 03:28 55.22366 11.07882 39935 ft 447 kts 238°
2026-05-06 03:29 55.19022 10.98693 39933 ft 447 kts 238°
2026-05-06 03:29 55.15682 10.89547 39932 ft 448 kts 237°
2026-05-06 03:30 55.12313 10.80354 39934 ft 448 kts 237°
2026-05-06 03:30 55.11209 10.77351 39931 ft 448 kts 237°
2026-05-06 03:31 55.08718 10.70585 39932 ft 448 kts 237°
2026-05-06 03:31 55.05358 10.61488 39933 ft 449 kts 237°
2026-05-06 03:32 55.01967 10.52342 39932 ft 449 kts 237°
2026-05-06 03:32 54.98570 10.43213 39933 ft 449 kts 237°
2026-05-06 03:33 54.95167 10.34102 39931 ft 449 kts 237°
2026-05-06 03:33 54.91745 10.24973 39931 ft 449 kts 237°
2026-05-06 03:34 54.88321 10.15874 39937 ft 450 kts 237°
2026-05-06 03:34 54.84908 10.06835 39933 ft 450 kts 237°
2026-05-06 03:35 54.81450 9.97712 39933 ft 450 kts 237°
2026-05-06 03:35 54.78063 9.88633 39936 ft 451 kts 238°
2026-05-06 03:36 54.74747 9.79410 39929 ft 451 kts 238°
2026-05-06 03:36 54.71425 9.70205 39926 ft 451 kts 238°
2026-05-06 03:37 54.68115 9.61131 39916 ft 451 kts 237°
2026-05-06 03:37 54.64705 9.51846 39913 ft 452 kts 237°
2026-05-06 03:38 54.61353 9.42756 39910 ft 452 kts 237°
2026-05-06 03:38 54.57961 9.33589 39911 ft 453 kts 237°
2026-05-06 03:39 54.54565 9.24443 39912 ft 453 kts 237°
2026-05-06 03:39 54.51162 9.15310 39911 ft 453 kts 237°
2026-05-06 03:40 54.47749 9.06186 39910 ft 454 kts 237°
2026-05-06 03:40 54.44325 8.97067 39908 ft 454 kts 237°
2026-05-06 03:41 54.40894 8.87962 39912 ft 454 kts 237°
2026-05-06 03:41 54.37475 8.78921 39910 ft 454 kts 237°
2026-05-06 03:42 54.34016 8.69810 39908 ft 455 kts 237°
2026-05-06 03:42 54.30559 8.60735 39908 ft 455 kts 236°
2026-05-06 03:43 54.27063 8.51888 39906 ft 455 kts 232°
2026-05-06 03:43 54.22725 8.43767 39905 ft 456 kts 225°
2026-05-06 03:44 54.18190 8.36184 39909 ft 456 kts 224°
2026-05-06 03:44 54.13643 8.28718 39905 ft 457 kts 224°
2026-05-06 03:45 54.09071 8.21178 39906 ft 457 kts 224°
2026-05-06 03:45 54.04512 8.13640 39899 ft 457 kts 224°
2026-05-06 03:46 53.99945 8.06100 39900 ft 457 kts 224°
2026-05-06 03:46 53.95367 7.98569 39901 ft 458 kts 224°
2026-05-06 03:47 53.90809 7.91097 39898 ft 458 kts 224°
2026-05-06 03:47 53.86193 7.83554 39891 ft 459 kts 224°
2026-05-06 03:48 53.81619 7.76105 39890 ft 459 kts 224°
2026-05-06 03:48 53.77009 7.68621 39889 ft 459 kts 224°
2026-05-06 03:49 53.72391 7.61148 39890 ft 459 kts 224°
2026-05-06 03:49 53.70085 7.57425 39713 ft 458 kts 224°
2026-05-06 03:49 53.67780 7.53709 39180 ft 458 kts 224°
2026-05-06 03:50 53.65480 7.50006 38618 ft 457 kts 224°
2026-05-06 03:50 53.63176 7.46304 37946 ft 457 kts 223°
2026-05-06 03:50 53.60881 7.42620 37365 ft 454 kts 223°
2026-05-06 03:50 53.58598 7.38957 36823 ft 452 kts 223°
2026-05-06 03:51 53.54563 7.30944 36623 ft 454 kts 232°
2026-05-06 03:51 53.52701 7.26628 36486 ft 457 kts 233°
2026-05-06 03:51 53.50850 7.22304 36333 ft 458 kts 233°
2026-05-06 03:52 53.49011 7.18004 36186 ft 458 kts 233°
2026-05-06 03:52 53.47159 7.13677 36002 ft 457 kts 232°
2026-05-06 03:52 53.45311 7.09362 35531 ft 452 kts 232°
2026-05-06 03:52 53.43480 7.05094 34938 ft 450 kts 232°
2026-05-06 03:53 53.41648 7.00829 34284 ft 450 kts 232°
2026-05-06 03:53 53.39819 6.96582 33562 ft 450 kts 231°
2026-05-06 03:53 53.37996 6.92354 33085 ft 444 kts 231°
2026-05-06 03:53 53.36201 6.88199 32625 ft 438 kts 231°
2026-05-06 03:54 53.34426 6.84095 32155 ft 432 kts 231°
2026-05-06 03:54 53.32671 6.80046 31672 ft 428 kts 231°
2026-05-06 03:54 53.30930 6.76035 31218 ft 423 kts 231°
2026-05-06 03:54 53.29209 6.72076 30764 ft 419 kts 231°
2026-05-06 03:55 53.27505 6.68160 30311 ft 415 kts 231°
2026-05-06 03:55 53.25810 6.64273 29862 ft 411 kts 231°
2026-05-06 03:55 53.24133 6.60434 29382 ft 407 kts 232°
2026-05-06 03:55 53.22473 6.56637 28944 ft 402 kts 232°
2026-05-06 03:56 53.20833 6.52893 28514 ft 397 kts 232°
2026-05-06 03:56 53.19212 6.49197 28131 ft 392 kts 232°
2026-05-06 03:56 53.17623 6.45530 27602 ft 391 kts 232°
2026-05-06 03:56 53.16040 6.41846 27135 ft 387 kts 232°
2026-05-06 03:57 53.14497 6.38259 26732 ft 385 kts 232°
2026-05-06 03:57 53.12944 6.34660 26312 ft 384 kts 232°
2026-05-06 03:57 53.11378 6.31040 25898 ft 382 kts 232°
2026-05-06 03:57 53.09828 6.27461 25480 ft 380 kts 232°
2026-05-06 03:58 53.08282 6.23899 25059 ft 378 kts 232°
2026-05-06 03:58 53.06746 6.20364 24646 ft 377 kts 233°
2026-05-06 03:58 53.05212 6.16842 24229 ft 375 kts 233°
2026-05-06 03:58 53.03685 6.13337 23812 ft 373 kts 233°
2026-05-06 03:59 53.02165 6.09854 23384 ft 372 kts 233°
2026-05-06 03:59 53.00645 6.06378 22911 ft 370 kts 233°
2026-05-06 03:59 52.99135 6.02928 22491 ft 369 kts 233°
2026-05-06 03:59 52.97632 5.99497 22070 ft 367 kts 233°
2026-05-06 04:00 52.96131 5.96075 21638 ft 365 kts 233°
2026-05-06 04:00 52.94640 5.92682 21213 ft 363 kts 233°
2026-05-06 04:00 52.93161 5.89322 20787 ft 361 kts 233°
2026-05-06 04:00 52.91683 5.85967 20359 ft 358 kts 233°
2026-05-06 04:01 52.90214 5.82640 19943 ft 357 kts 233°
2026-05-06 04:01 52.88765 5.79363 19523 ft 356 kts 233°
2026-05-06 04:01 52.87285 5.76017 19081 ft 356 kts 233°
2026-05-06 04:01 52.85852 5.72782 18669 ft 355 kts 233°
2026-05-06 04:02 52.84384 5.69473 18249 ft 354 kts 234°
2026-05-06 04:02 52.82931 5.66202 17793 ft 353 kts 234°
2026-05-06 04:02 52.81486 5.62951 17360 ft 351 kts 234°
2026-05-06 04:02 52.80043 5.59707 16931 ft 349 kts 234°
2026-05-06 04:03 52.78609 5.56490 16519 ft 347 kts 234°
2026-05-06 04:03 52.77182 5.53290 16106 ft 345 kts 234°
2026-05-06 04:03 52.75763 5.50115 15682 ft 342 kts 234°
2026-05-06 04:03 52.74353 5.46966 15265 ft 340 kts 234°
2026-05-06 04:04 52.72950 5.43833 14851 ft 339 kts 234°
2026-05-06 04:04 52.71552 5.40715 14429 ft 337 kts 234°
2026-05-06 04:04 52.70161 5.37617 14023 ft 335 kts 234°
2026-05-06 04:04 52.68779 5.34544 13612 ft 333 kts 234°
2026-05-06 04:05 52.67405 5.31491 13176 ft 331 kts 234°
2026-05-06 04:05 52.66037 5.28455 12769 ft 329 kts 234°
2026-05-06 04:05 52.64677 5.25442 12365 ft 327 kts 234°
2026-05-06 04:05 52.63324 5.22445 11948 ft 325 kts 234°
2026-05-06 04:06 52.61975 5.19464 11558 ft 323 kts 233°
2026-05-06 04:06 52.60799 5.16868 11206 ft 322 kts 233°
2026-05-06 04:06 52.59518 5.14042 10833 ft 320 kts 233°
2026-05-06 04:06 52.58200 5.11136 10541 ft 313 kts 233°
2026-05-06 04:07 52.56939 5.08363 10425 ft 300 kts 233°
2026-05-06 04:07 52.55711 5.05664 10293 ft 289 kts 233°
2026-05-06 04:07 52.54530 5.03072 10164 ft 278 kts 233°
2026-05-06 04:07 52.53389 5.00568 9962 ft 271 kts 233°
2026-05-06 04:08 52.52260 4.98093 9695 ft 274 kts 234°
2026-05-06 04:08 52.51474 4.96368 9569 ft 284 kts 233°
2026-05-06 04:08 52.50277 4.93746 9412 ft 288 kts 233°
2026-05-06 04:08 52.49096 4.91163 8985 ft 288 kts 233°
2026-05-06 04:09 52.47895 4.88540 8594 ft 287 kts 233°
2026-05-06 04:09 52.46698 4.85929 8277 ft 286 kts 233°
2026-05-06 04:09 52.45500 4.83318 7981 ft 286 kts 233°
2026-05-06 04:09 52.44304 4.80715 7665 ft 286 kts 233°
2026-05-06 04:10 52.43109 4.78116 7391 ft 285 kts 233°
2026-05-06 04:10 52.41915 4.75520 7096 ft 285 kts 233°
2026-05-06 04:10 52.40720 4.72928 6783 ft 285 kts 233°
2026-05-06 04:10 52.39527 4.70342 6491 ft 284 kts 233°
2026-05-06 04:11 52.38339 4.67768 6182 ft 283 kts 233°
2026-05-06 04:11 52.37148 4.65193 5871 ft 283 kts 233°
2026-05-06 04:11 52.35958 4.62618 5656 ft 283 kts 233°
2026-05-06 04:11 52.34776 4.60067 5385 ft 282 kts 233°
2026-05-06 04:12 52.33591 4.57509 5086 ft 282 kts 233°
2026-05-06 04:12 52.32408 4.54960 4785 ft 281 kts 233°
2026-05-06 04:12 52.31231 4.52425 4471 ft 280 kts 233°
2026-05-06 04:12 52.30049 4.49885 4206 ft 280 kts 233°
2026-05-06 04:13 52.28888 4.47388 3893 ft 279 kts 233°
2026-05-06 04:13 52.27829 4.44727 3453 ft 279 kts 241°
2026-05-06 04:13 52.26895 4.41951 3018 ft 278 kts 243°
2026-05-06 04:13 52.26001 4.39247 2598 ft 262 kts 243°
2026-05-06 04:14 52.25146 4.36749 2382 ft 243 kts 239°
2026-05-06 04:14 52.23977 4.34950 2211 ft 226 kts 206°
2026-05-06 04:14 52.22546 4.34090 2126 ft 212 kts 193°
2026-05-06 04:14 52.21166 4.34121 2060 ft 190 kts 156°
2026-05-06 04:15 52.20188 4.35348 2011 ft 173 kts 115°
2026-05-06 04:15 52.19887 4.37149 2007 ft 162 kts 86°
2026-05-06 04:15 52.19940 4.38971 2006 ft 160 kts 78°
2026-05-06 04:15 52.20068 4.40773 2003 ft 160 kts 78°
2026-05-06 04:16 52.20215 4.42582 2005 ft 161 kts 77°
2026-05-06 04:16 52.20361 4.44388 2004 ft 160 kts 77°
2026-05-06 04:16 52.20504 4.46193 2001 ft 160 kts 77°
2026-05-06 04:16 52.20653 4.47972 1999 ft 159 kts 77°
2026-05-06 04:17 52.20920 4.49713 2005 ft 157 kts 70°
2026-05-06 04:17 52.21230 4.51416 2000 ft 157 kts 69°
2026-05-06 04:17 52.21553 4.53130 1998 ft 158 kts 68°
2026-05-06 04:17 52.21885 4.54835 1997 ft 158 kts 68°
2026-05-06 04:18 52.22336 4.56453 2000 ft 156 kts 58°
2026-05-06 04:18 52.22865 4.57942 1988 ft 145 kts 56°
2026-05-06 04:18 52.23376 4.59319 1993 ft 140 kts 56°
2026-05-06 04:18 52.23894 4.60658 1997 ft 140 kts 54°
2026-05-06 04:19 52.24411 4.62005 1911 ft 139 kts 55°
2026-05-06 04:19 52.24906 4.63312 1725 ft 133 kts 55°
2026-05-06 04:19 52.25389 4.64598 1391 ft 134 kts 54°
2026-05-06 04:19 52.25881 4.65913 1017 ft 137 kts 54°
2026-05-06 04:20 52.26390 4.67158 888 ft 129 kts 52°
2026-05-06 04:20 52.26887 4.68355 687 ft 130 kts 51°
2026-05-06 04:20 52.27321 4.69620 608 ft 133 kts 57°
2026-05-06 04:20 52.27814 4.70939 441 ft 137 kts 51°
2026-05-06 04:21 52.28336 4.72211 242 ft 132 kts 55°
2026-05-06 04:21 52.28817 4.73483 69 ft 134 kts 53°
2026-05-06 04:21 52.29306 4.74748 7 ft 123 kts 59°
2026-05-06 04:21 52.29653 4.75656 5 ft 54 kts 58°
2026-05-06 04:22 52.29838 4.76137 2 ft 47 kts 58°
2026-05-06 04:22 52.29945 4.76414 3 ft 12 kts 56°
2026-05-06 04:22 52.30006 4.76513 4 ft 13 kts 36°
2026-05-06 04:23 52.30191 4.76679 5 ft 17 kts 27°
2026-05-06 04:23 52.30267 4.76735 5 ft 7 kts 25°
2026-05-06 04:23 52.30307 4.76804 5 ft 10 kts 56°
2026-05-06 04:23 52.30346 4.76909 5 ft 12 kts 58°
2026-05-06 04:24 52.30394 4.77036 5 ft 14 kts 58°
2026-05-06 04:24 52.30453 4.77186 5 ft 17 kts 58°
2026-05-06 04:24 52.30516 4.77353 5 ft 18 kts 58°
2026-05-06 04:24 52.30578 4.77512 5 ft 16 kts 54°
2026-05-06 04:25 52.30657 4.77585 5 ft 13 kts
2026-05-06 04:25 52.30758 4.77597 5 ft 15 kts
2026-05-06 04:25 52.30872 4.77608 5 ft 17 kts
2026-05-06 04:25 52.30998 4.77619 5 ft 19 kts
2026-05-06 04:26 52.31136 4.77631 5 ft 20 kts
2026-05-06 04:26 52.31280 4.77645 5 ft 21 kts
2026-05-06 04:26 52.31412 4.77652 5 ft 17 kts 354°
2026-05-06 04:26 52.31504 4.77571 5 ft 14 kts 317°
2026-05-06 04:27 52.31568 4.77450 5 ft 14 kts 295°
2026-05-06 04:27 52.31575 4.77286 5 ft 16 kts 267°
2026-05-06 04:27 52.31569 4.77089 5 ft 18 kts 266°
2026-05-06 04:27 52.31561 4.76887 5 ft 17 kts 266°
2026-05-06 04:28 52.31554 4.76701 5 ft 16 kts 267°
2026-05-06 04:28 52.31548 4.76520 5 ft 16 kts 267°
2026-05-06 04:28 52.31542 4.76337 5 ft 17 kts 266°
2026-05-06 04:28 52.31534 4.76128 5 ft 19 kts 267°
2026-05-06 04:29 52.31528 4.75928 5 ft 17 kts 266°
2026-05-06 04:29 52.31521 4.75749 5 ft 15 kts 266°
2026-05-06 04:29 52.31516 4.75577 5 ft 15 kts 267°
2026-05-06 04:29 52.31510 4.75469 5 ft 9 kts 256°
2026-05-06 04:30 52.31454 4.75440 5 ft 10 kts 177°
2026-05-06 04:30 52.31388 4.75445 5 ft 3 kts 177°
2026-05-06 04:30 52.31363 4.75449 5 ft 4 kts 169°
2026-05-06 04:30 52.31350 4.75492 5 ft 5 kts 96°
2026-05-06 04:31 52.31352 4.75551 5 ft 4 kts 86°
2026-05-06 04:31 52.31353 4.75577 5 ft 1 kts 86°